GFSSE_con_mlcape_000.txt.gz
CAPE
1254 991 732 619 781 1161 1245 1421 1769 1833 1887 1601 1414 1539 1471 1496 1427 1387 1191 1063 1089 988 1238 1499 1322 1132 1000 952 1087 845 797 1022 1169 1106 992 806 637 539 348 406 213 218 225
1477 1140 826 570 493 983 1389 1516 1815 2045 1968 1736 1746 1415 1345 1282 1228 1266 1288 1313 1240 1094 1211 1233 1094 1470 1310 1517 1478 1197 1129 1072 1118 965 812 786 682 545 421 127 95 181 164
1412 1169 929 455 274 386 1078 1549 1853 1792 2019 1894 1627 1581 1637 1397 1106 726 1063 1278 1333 1166 1204 1307 1200 1405 1435 1291 1322 1303 1081 861 876 885 575 462 341 469 439 46 184 21 225
1437 1296 1058 515 319 211 228 715 1287 1587 1392 450 1682 1491 1363 1283 152 0 691 1168 1196 1298 1543 1454 1217 1323 1417 1383 1296 1285 1005 776 807 785 300 162 103 388 556 282 323 219 139
1628 1424 1058 776 497 373 204 272 740 1012 1092 1269 1537 1549 1463 1260 763 119 998 1522 1560 1465 1542 1696 1610 1636 1361 1368 1444 1358 1122 931 772 385 98 76 90 662 783 711 680 567 347
1743 1544 1323 1035 921 549 263 198 492 801 778 858 948 1155 1508 1446 1477 1318 1359 1387 1426 1464 1176 1281 1430 1289 1141 1021 1024 1214 1040 827 559 295 84 145 212 786 879 981 994 678 487
1706 1667 1752 1388 1213 984 694 345 665 885 830 875 1060 1152 1267 1474 1541 1580 1408 1281 1358 1269 1245 1284 1150 984 805 739 871 862 794 668 337 59 99 133 164 824 868 746 717 274 84
1614 1673 1837 1530 1438 1363 1183 911 730 807 1015 971 887 828 933 964 1028 1097 1272 1246 1285 1204 1014 890 826 654 466 488 636 562 442 395 115 48 75 94 334 548 952 446 312 191 107
1004 1157 1443 1551 1383 1186 1016 1011 938 721 890 979 1005 811 625 726 884 725 567 762 915 1166 1066 937 632 414 212 152 395 412 432 328 184 49 61 44 207 290 866 497 100 55 72
797 836 1214 1505 1423 1392 1217 305 249 573 700 736 947 964 632 570 761 861 553 369 534 620 659 698 584 408 252 72 45 102 126 257 293 81 41 67 63 92 696 471 135 72 71
194 134 790 1311 1259 918 523 118 479 480 395 453 646 538 601 767 476 350 1 0 118 247 336 483 436 181 44 7 0 0 0 63 151 113 59 27 26 29 450 341 172 57 43
0 0 1 427 586 587 103 160 1117 1219 1047 838 811 698 526 276 105 23 0 0 0 0 0 246 227 88 4 40 0 0 0 0 0 1 0 3 16 32 150 227 74 77 40
0 0 0 0 5 315 402 541 776 588 574 236 284 242 187 0 0 0 0 0 0 0 0 1 45 162 155 125 0 0 0 0 0 0 0 0 0 46 144 196 89 109 47
0 0 0 0 0 0 27 54 40 0 0 0 26 203 205 148 40 2 0 2 0 0 0 4 0 0 42 221 49 0 0 0 0 0 0 0 0 0 117 186 156 89 56
0 0 0 0 0 0 0 0 0 0 0 0 0 0 0 13 11 3 0 0 0 0 0 0 0 24 56 51 35 5 9 2 0 0 0 0 0 0 9 125 177 175 50
0 0 0 0 0 0 0 0 0 0 0 0 0 0 0 0 3 57 0 0 13 53 98 35 47 1 33 2 50 77 92 69 10 4 4 0 0 0 0 12 129 174 123
0 0 0 0 0 0 0 0 0 0 0 0 0 0 0 0 0 0 0 0 0 3 21 104 94 108 133 119 82 66 40 60 30 9 7 1 0 0 0 0 2 76 208
0 0 0 0 0 0 0 0 0 0 0 0 0 0 0 0 0 0 0 0 0 0 0 0 0 0 26 47 56 24 17 27 26 12 8 1 0 0 0 0 0 28 109
0 0 0 0 0 0 0 0 0 0 0 0 0 0 0 0 0 0 0 0 0 0 0 0 0 0 0 0 1 61 38 1 36 10 1 1 0 0 0 0 0 0 65
0 0 0 0 0 0 0 0 0 0 0 0 0 0 0 0 0 0 0 0 0 0 0 0 0 0 0 0 0 0 65 109 84 34 16 2 2 1 0 0 0 0 0
0 0 0 0 0 0 0 0 0 0 0 0 0 0 0 0 0 0 0 0 0 0 0 0 0 0 0 0 0 0 0 21 105 64 2 38 3 0 0 0 0 0 0
0 0 0 0 0 0 0 0 0 0 0 0 0 0 0 0 0 0 0 0 0 0 0 0 0 0 0 0 0 0 0 11 59 27 32 46 17 0 0 0 0 0 0
0 0 0 0 0 0 0 0 0 0 0 0 0 0 0 0 0 0 0 0 0 0 0 0 0 0 0 0 0 0 0 0 0 0 28 56 55 4 7 0 0 0 0
0 0 0 0 0 0 0 0 0 0 0 0 0 0 0 0 0 0 0 0 0 0 0 0 0 0 0 0 0 0 0 0 0 0 0 0 9 12 10 6 0 0 0
0 0 0 0 0 0 0 0 0 0 0 0 0 0 0 0 0 0 0 0 7 13 8 8 5 0 0 0 0 0 0 0 0 0 0 0 0 0 2 19 5 0 0
0 0 0 0 0 0 0 0 0 0 0 0 0 0 0 0 0 0 0 0 0 0 4 7 12 21 16 7 1 0 0 0 0 0 0 0 0 0 0 0 4 1 0

GFSSE_con_mlcape_006.txt.gz
CAPE
870 443 187 317 674 871 1113 1464 1695 1541 1589 1507 1236 1059 871 870 771 850 680 508 471 401 528 781 767 753 461 390 83 16 43 153 212 203 190 217 203 384 286 372 477 839 664
956 479 150 113 441 849 1108 1360 1851 1994 1908 1891 1578 1372 1089 1047 1027 820 805 669 475 417 93 478 554 805 833 748 461 266 221 357 599 649 553 360 224 219 206 513 242 561 577
1070 857 120 43 59 428 1047 1488 1689 1969 1386 1688 1898 1649 1439 1212 961 878 644 289 152 33 0 170 602 538 787 657 297 308 395 583 711 580 360 728 480 274 3 155 199 368 316
1122 765 384 211 190 168 499 1094 1505 1570 1421 1272 1591 1494 1452 1152 753 818 305 0 1 45 9 21 389 392 555 473 528 521 645 741 641 369 145 195 741 379 0 0 175 316 341
1253 1097 584 401 389 273 336 708 1070 1121 1233 1246 1385 1399 1271 1323 838 541 355 248 172 511 1008 635 67 265 432 552 640 644 661 722 620 507 399 335 582 700 140 0 32 166 154
1480 1349 790 742 723 559 343 840 1027 859 931 1100 1040 1017 1628 1225 851 422 31 59 184 685 400 114 1 11 345 290 579 835 732 653 562 421 525 187 102 811 462 4 238 61 17
1574 1734 1132 885 993 960 738 569 696 977 846 744 765 956 1114 1118 1354 1130 1099 888 570 455 12 0 0 0 34 98 618 751 1034 875 827 656 637 151 248 887 717 330 537 664 63
1714 1868 1686 1134 967 896 751 592 418 543 721 884 809 582 740 710 544 635 637 540 503 475 331 114 119 248 499 176 244 590 641 571 622 486 307 74 357 570 855 539 446 636 568
1193 1408 1771 1860 1388 1152 724 415 529 507 613 850 952 832 566 837 736 347 305 357 269 228 282 430 471 494 349 279 198 231 296 255 158 262 249 214 611 682 822 642 634 744 619
1338 1355 1335 1452 1920 1413 723 152 231 419 515 646 805 809 843 700 400 272 190 48 28 31 2 13 4 209 390 266 202 118 123 89 49 82 216 267 512 592 880 1065 815 570 285
809 741 1321 1536 1674 1387 1082 256 754 581 581 629 563 431 422 1121 658 272 0 0 0 0 0 0 0 0 0 0 103 54 4 1 0 72 106 175 219 343 422 790 704 583 397
95 17 90 599 1118 1290 1061 314 1466 1247 1043 961 1028 873 839 763 394 274 86 0 0 0 0 0 0 0 0 0 0 14 4 0 0 29 270 154 110 138 129 210 579 518 351
0 0 0 303 916 1291 1087 1164 1273 994 936 762 711 575 411 206 164 191 194 224 105 0 0 0 0 0 0 0 0 0 0 0 0 0 0 28 6 49 134 75 511 440 354
0 0 0 255 572 596 572 483 650 429 376 283 298 299 180 137 70 119 39 9 0 0 2 1 0 0 0 0 0 0 0 0 0 1 6 21 0 25 96 214 314 426 365
0 0 0 6 248 431 224 81 1 0 0 0 0 0 0 1 18 3 0 0 0 0 0 0 0 0 0 0 0 0 0 0 1 0 2 2 0 0 0 85 251 370 352
0 0 0 0 0 0 37 0 0 0 0 0 0 0 0 0 0 0 0 0 0 0 0 1 6 9 4 0 0 0 1 2 0 2 41 14 0 0 0 0 18 266 418
0 0 0 0 0 0 0 0 0 0 0 0 0 0 0 0 0 0 0 0 0 0 0 0 0 0 0 0 7 28 45 25 32 74 70 79 37 6 0 0 0 0 79
0 0 0 0 0 0 0 0 0 0 0 0 0 0 0 0 0 0 0 0 0 0 0 0 0 0 0 0 0 0 0 0 32 87 111 122 91 30 12 0 0 0 0
0 0 0 0 0 0 0 0 0 0 0 0 0 0 0 0 0 0 0 0 0 0 0 0 0 0 0 0 0 0 0 0 0 0 54 112 150 75 26 39 3 0 0
0 0 0 0 0 0 0 0 0 0 0 0 0 0 0 0 0 0 0 0 0 0 0 0 0 0 0 0 0 0 0 0 0 0 2 95 157 151 74 32 9 0 0
0 0 0 0 0 0 0 0 0 0 0 0 0 0 0 0 0 0 0 0 0 0 0 0 0 0 0 0 0 0 0 0 0 0 0 6 93 147 119 40 11 3 0
0 0 0 0 0 0 0 0 0 0 0 0 0 0 0 0 0 0 0 0 0 0 0 0 0 0 0 0 0 0 0 0 0 0 0 0 0 0 33 87 24 4 2
0 0 0 0 0 0 0 0 0 0 0 0 0 0 0 0 0 0 0 0 0 0 0 0 0 0 0 0 0 0 0 0 0 0 0 0 0 0 0 0 11 15 1
0 0 0 0 0 0 0 0 0 0 0 0 0 0 0 0 0 3 5 11 11 4 0 0 0 1 0 0 0 3 0 0 0 0 0 0 0 0 0 0 0 2 20
0 0 0 0 0 0 0 0 0 0 0 0 0 0 0 0 0 0 0 0 2 9 5 0 0 0 0 0 0 14 5 0 0 0 0 0 0 0 0 0 0 0 0
0 0 0 0 0 0 0 0 0 0 0 0 0 0 0 0 0 0 0 0 0 0 0 0 0 0 0 0 0 0 0 3 0 0 0 0 0 0 0 0 0 0 0

GFSSE_con_mlcape_009.txt.gz
CAPE
340 48 90 462 893 1079 1229 1532 1634 1739 1589 1332 1165 1033 960 825 710 553 425 239 89 41 79 257 475 560 695 545 441 476 297 131 374 651 817 558 672 437 530 612 830 667 470
449 41 29 87 564 1060 1290 1477 1505 1567 1828 1707 1518 1279 1089 1098 1073 914 645 506 482 214 234 89 447 670 593 399 359 378 461 322 87 9 182 296 127 122 100 264 358 614 464
479 75 34 16 78 534 1027 1440 1527 1101 1249 1674 1802 1651 1393 1290 1074 917 841 892 685 298 171 183 559 527 416 387 332 289 381 371 406 224 120 208 206 51 44 110 454 537 252
588 297 212 81 50 215 830 1125 1309 1300 1311 1366 1537 1687 1517 1287 1092 931 761 278 144 122 131 534 488 188 34 167 362 365 343 508 598 508 342 392 704 125 98 14 339 417 297
768 448 393 212 110 257 805 993 1024 1017 998 1168 1419 1446 1581 1191 828 723 501 402 366 562 803 364 241 307 186 93 159 337 357 473 572 423 290 290 308 670 53 0 204 376 344
966 573 596 540 325 213 515 737 790 701 729 605 833 1491 1502 1246 979 665 188 275 356 851 917 623 231 27 155 54 0 0 413 584 492 309 253 359 477 757 183 0 22 207 335
1307 775 735 733 663 562 322 311 448 475 527 878 949 960 1084 1270 1197 1077 956 778 895 653 373 178 133 77 0 64 145 151 531 943 862 623 402 529 656 739 606 93 47 100 105
1507 1195 968 781 756 657 475 372 403 509 630 776 916 1041 831 1006 1229 1125 1022 859 811 404 76 2 0 0 0 0 92 306 560 933 1010 775 475 320 190 571 746 442 229 521 254
1709 1772 1298 1165 1150 863 589 402 407 465 651 746 906 961 972 789 514 484 568 570 567 451 436 421 372 304 316 245 226 245 388 414 381 287 252 147 514 686 627 755 381 625 278
1093 1104 1525 1463 1263 852 436 287 417 414 537 762 836 912 720 483 432 330 220 246 224 202 250 193 281 323 237 178 154 134 167 123 80 10 0 123 778 542 583 632 446 513 747
427 638 632 887 1298 911 526 362 609 608 641 701 642 588 704 680 408 144 67 0 0 0 0 0 0 33 1 0 0 5 0 0 0 0 0 144 467 411 486 455 439 602 740
0 15 47 69 643 842 941 527 853 850 809 844 852 620 620 766 281 92 86 25 1 0 0 0 0 0 0 0 0 0 0 0 0 0 0 115 206 260 439 437 227 472 568
0 0 0 264 711 811 799 1075 944 700 731 578 515 494 330 227 125 166 87 113 32 0 0 0 0 0 0 0 0 0 0 0 0 1 0 29 141 256 329 263 200 346 443
0 0 0 30 319 414 191 683 552 564 328 408 323 238 1 94 9 88 16 6 0 0 0 0 0 0 0 0 0 0 0 0 0 0 0 0 0 28 118 206 388 334 264
0 0 0 0 118 186 8 2 0 0 0 0 0 0 0 0 0 0 0 0 0 0 0 0 0 0 0 0 0 0 0 0 0 0 0 0 1 0 8 102 190 345 512
0 0 0 0 0 0 0 0 0 0 0 0 0 0 0 0 0 0 0 0 0 0 0 0 0 0 0 0 0 1 0 0 0 0 0 0 2 9 25 11 9 157 254
0 0 0 0 0 0 0 0 0 0 0 0 0 0 0 0 0 0 0 0 0 0 0 0 0 0 0 0 0 0 0 1 0 0 4 28 38 26 38 12 0 0 6
0 0 0 0 0 0 0 0 0 0 0 0 0 0 0 0 0 0 0 0 0 0 0 0 0 0 0 0 0 0 0 0 0 0 0 0 77 98 44 29 3 0 0
0 0 0 0 0 0 0 0 0 0 0 0 0 0 0 0 0 0 0 0 0 0 0 0 0 0 0 0 0 0 0 0 0 0 0 0 0 45 86 62 66 55 27
0 0 0 0 0 0 0 0 0 0 0 0 0 0 0 0 0 0 0 0 0 0 0 0 0 0 0 0 0 0 0 0 0 0 0 0 0 0 8 90 74 38 30
0 0 0 0 0 0 0 0 0 0 0 0 0 0 0 0 0 0 0 0 0 0 0 0 0 0 0 0 0 0 0 0 0 0 0 0 0 0 0 5 81 33 6
0 0 0 0 0 0 0 0 0 0 0 0 0 0 0 0 0 0 0 0 0 0 0 0 0 0 0 0 0 0 0 0 0 0 0 0 0 0 0 0 0 0 5
0 0 0 0 0 0 0 0 0 0 0 0 0 0 0 0 0 0 0 0 0 0 0 0 0 0 0 0 0 0 0 0 0 0 0 0 0 0 0 0 0 0 0
0 0 0 0 0 0 0 0 0 0 0 0 0 0 0 0 0 0 0 0 0 0 0 0 0 0 0 0 0 0 0 0 0 0 0 0 0 0 0 0 0 0 0
0 0 0 0 0 0 0 0 0 0 0 0 0 0 0 0 0 0 0 0 0 0 0 0 0 0 0 0 0 0 0 0 0 0 0 0 0 0 0 0 0 0 0
0 0 0 0 0 0 0 0 0 0 0 0 0 0 0 0 0 0 0 0 0 0 0 0 0 0 0 0 0 0 0 0 0 0 0 0 0 0 0 0 0 0 0

GFSSE_con_mlcape_012.txt.gz
CAPE
72 250 539 798 931 1147 1380 1490 1617 1496 1295 1226 1082 981 1106 881 1034 1095 890 848 592 590 671 389 418 584 816 573 265 204 190 352 438 497 848 614 422 462 557 644 845 1011 852
9 39 244 651 915 1086 1395 1218 1509 1833 1581 1489 1236 1104 1091 1132 1068 820 748 856 963 574 384 594 744 628 692 585 512 482 339 324 455 454 503 569 646 756 784 841 865 740 705
53 11 42 259 724 1063 1334 1470 1191 1517 1761 1724 1588 1373 1317 1307 1203 1094 987 896 508 370 530 761 1112 1033 806 503 268 197 274 151 178 505 668 348 251 528 442 364 596 744 673
240 149 72 155 554 912 1036 1147 1210 1330 1319 1425 1715 1766 1596 1499 1313 1172 950 465 195 248 1101 863 756 589 620 527 359 241 232 314 387 282 332 441 548 226 81 221 664 904 345
367 330 217 122 398 609 710 819 815 966 1251 1522 1640 1739 1688 1559 1432 1326 1003 674 618 815 910 799 868 712 394 119 1 0 11 263 394 422 294 172 217 556 396 17 630 629 421
506 420 289 88 133 356 472 541 593 568 576 753 1547 1732 1648 1477 1269 943 490 502 706 771 1506 1048 890 663 187 11 0 0 0 109 467 690 414 262 343 390 872 22 190 565 450
439 513 491 359 286 268 407 530 583 682 661 725 828 902 1382 1534 1352 1353 1223 902 1114 1076 954 866 799 466 395 32 0 0 0 36 218 828 576 380 338 785 956 190 87 377 449
785 717 767 665 571 406 356 401 493 639 794 844 897 861 805 842 1054 1093 1076 1052 985 514 204 94 37 132 4 35 153 66 97 195 576 791 588 539 245 282 760 472 52 67 257
1225 947 934 980 864 653 436 321 342 495 748 907 979 939 792 642 568 599 676 705 711 614 633 574 265 48 353 162 326 411 420 420 451 361 162 191 161 301 633 592 253 380 277
1514 1434 1140 1115 901 623 326 439 342 347 574 802 889 773 641 584 494 400 447 439 443 474 400 499 614 481 332 262 212 199 187 168 118 24 1 1 19 427 764 498 362 311 621
1309 1359 1359 1334 1134 577 167 422 510 575 604 719 680 767 568 433 306 155 178 152 105 36 5 5 38 105 9 5 11 48 39 0 0 0 0 0 37 632 596 406 293 174 321
166 62 153 405 943 849 577 523 548 692 730 731 570 679 637 551 215 101 43 1 0 0 0 0 0 0 0 0 0 0 0 0 0 0 0 0 83 231 265 361 266 171 274
4 0 0 4 405 636 608 503 692 663 648 732 759 540 572 429 252 54 9 10 0 0 0 0 0 0 0 0 0 0 0 0 0 0 0 0 11 127 266 341 276 189 224
0 0 0 0 380 70 528 849 715 489 473 320 242 127 50 41 5 7 7 0 0 0 0 0 0 0 0 0 0 0 0 0 0 0 0 0 0 2 62 124 289 267 166
0 0 0 0 10 24 1 6 11 9 39 7 0 0 0 0 0 0 0 0 0 0 0 0 0 0 0 0 0 0 0 0 0 0 0 0 0 0 0 43 93 226 337
0 0 0 0 0 0 0 0 0 0 0 0 0 0 0 0 0 0 0 0 0 0 0 0 0 0 0 0 0 0 0 0 4 1 0 0 0 3 1 2 22 150 166
0 0 0 0 0 0 0 0 0 0 0 0 0 0 0 0 0 0 0 0 0 0 0 0 0 0 0 0 0 0 0 0 0 0 0 0 0 0 7 29 9 94 81
0 0 0 0 0 0 0 0 0 0 0 0 0 0 0 0 0 0 0 0 0 0 0 0 0 0 0 0 0 0 0 0 0 0 0 0 0 0 1 0 24 26 20
0 0 0 0 0 0 0 0 0 0 0 0 0 0 0 0 0 0 0 0 0 0 0 0 0 0 0 0 0 0 0 0 0 0 0 0 0 0 0 0 0 15 47
0 0 0 0 0 0 0 0 0 0 0 0 0 0 0 0 0 0 0 0 0 0 0 0 0 0 0 0 0 0 0 0 0 0 0 0 0 0 0 0 0 2 40
0 0 0 0 0 0 0 0 0 0 0 0 0 0 0 0 0 0 0 0 0 0 0 0 0 0 0 0 0 0 0 0 0 0 0 0 0 0 0 0 0 0 0
0 0 0 0 0 0 0 0 0 0 0 0 0 0 0 0 0 0 0 0 0 0 0 0 0 0 0 0 0 0 0 0 0 0 0 0 0 0 0 0 0 0 0
0 0 0 0 0 0 0 0 0 0 0 0 0 0 0 0 0 0 0 0 0 0 0 0 0 0 0 0 0 0 0 0 0 0 0 0 0 0 0 0 0 0 0
0 0 0 0 0 0 0 0 0 0 0 0 0 0 0 0 0 0 0 0 0 0 0 0 0 0 0 0 0 0 0 0 0 0 0 0 0 0 0 0 0 0 0
0 0 0 0 0 0 0 0 0 0 0 0 0 0 0 0 0 0 0 0 0 0 0 0 0 0 0 0 0 0 0 0 0 0 0 0 0 0 0 0 0 0 0
0 0 0 0 0 0 0 0 0 0 0 0 0 0 0 0 0 0 0 0 0 0 0 0 0 0 0 0 0 0 0 0 0 0 0 0 0 0 0 0 0 0 0

GFSSE_con_mlcape_015.txt.gz
CAPE
40 347 810 963 1089 1220 1361 1493 1448 1350 1306 1190 1135 944 1193 1428 1352 1262 1358 1215 1234 1182 1104 1134 1234 1094 1037 373 243 128 110 175 372 557 719 480 771 775 412 397 948 915 833
44 361 733 931 1198 1224 1277 1540 1685 1579 1544 1295 1233 1132 1005 1053 1297 1146 1133 1100 792 707 773 1048 1140 1448 1240 705 336 294 218 74 33 77 435 633 628 646 612 783 780 958 716
20 159 449 859 1171 1327 1190 1291 1622 1777 1847 1750 1491 1446 1461 1312 1205 1094 1043 722 486 478 621 907 1133 1319 1106 806 554 510 412 265 205 183 165 217 238 412 435 747 777 460 491
66 68 231 625 940 1060 1164 1235 1288 1406 1502 1781 1911 1739 1620 1506 1509 1370 1006 553 262 564 633 816 952 1259 1032 735 418 267 218 238 416 346 351 200 339 269 396 256 586 600 383
187 83 133 386 651 789 931 964 1095 1266 1496 1668 1828 1909 1885 1765 1616 1486 1110 884 818 957 1038 1080 1239 877 819 715 454 351 255 297 359 610 498 331 371 459 255 213 375 569 650
220 134 109 300 352 350 396 319 322 318 567 1412 1744 1849 1778 1668 1412 938 429 537 968 1054 1425 1157 1267 1096 517 264 54 26 0 0 190 345 548 564 445 376 633 802 177 532 512
338 316 202 176 215 279 372 295 214 300 539 655 921 1263 1519 1533 1507 1450 1336 763 992 1171 1159 1350 1030 899 499 194 4 0 0 0 138 212 325 482 393 523 773 792 86 291 440
387 488 471 401 362 243 269 355 486 579 673 838 752 735 1055 1198 1274 1193 1212 1287 1146 647 274 163 121 455 384 100 117 120 98 115 252 293 259 269 363 449 407 776 305 263 503
758 755 808 808 767 548 340 303 469 659 746 892 747 667 527 427 503 663 808 875 871 862 862 627 174 83 188 292 373 442 376 312 182 105 92 63 58 234 325 888 542 167 421
980 885 923 953 880 610 285 356 350 522 662 781 844 773 631 546 503 555 629 649 678 515 533 603 602 446 324 285 210 139 90 64 0 0 0 0 9 82 408 530 744 389 205
1263 1178 1008 1083 954 598 169 294 365 425 529 694 792 724 561 461 345 225 274 244 141 35 7 3 21 6 0 0 0 0 20 0 0 0 0 0 2 207 486 635 511 272 248
1285 1284 1166 1145 1082 706 279 277 403 460 537 574 526 606 510 308 124 106 49 16 20 0 0 0 0 0 0 0 0 0 0 0 0 0 0 0 0 201 351 430 276 296 211
857 364 370 246 484 637 577 202 371 449 493 511 450 374 396 515 134 14 3 19 1 0 0 0 0 0 0 0 0 0 0 0 0 0 0 0 0 0 14 276 290 327 208
21 0 0 1 100 30 298 375 456 509 379 391 323 200 231 126 34 3 0 0 0 0 0 0 0 0 0 0 0 0 0 0 0 0 0 0 0 0 0 16 139 224 257
0 0 0 0 5 0 137 181 379 174 216 90 23 0 0 0 0 0 0 0 0 0 0 0 0 0 0 0 0 0 0 0 0 0 0 0 0 0 4 55 42 39 120
0 0 0 0 0 0 0 0 0 0 0 0 0 0 0 0 0 0 0 0 0 0 0 0 0 0 0 0 0 0 0 0 0 0 0 0 0 0 0 0 20 64 39
0 0 0 0 0 0 0 0 0 0 0 0 0 0 0 0 0 0 0 0 0 0 0 0 0 0 0 0 0 0 0 0 0 0 0 0 0 0 0 0 0 0 66
0 0 0 0 0 0 0 0 0 0 0 0 0 0 0 0 0 0 0 0 0 0 0 0 0 0 0 0 0 0 0 0 0 0 0 0 0 0 0 0 0 0 0
0 0 0 0 0 0 0 0 0 0 0 0 0 0 0 0 0 0 0 0 0 0 0 0 0 0 0 0 0 0 0 0 0 0 0 0 0 0 0 0 0 0 0
0 0 0 0 0 0 0 0 0 0 0 0 0 0 0 0 0 0 0 0 0 0 0 0 0 0 0 0 0 0 0 0 0 0 0 0 0 0 0 0 0 0 0
0 0 0 0 0 0 0 0 0 0 0 0 0 0 0 0 0 0 0 0 0 0 0 0 0 0 0 0 0 0 0 0 0 0 0 0 0 0 0 0 0 0 0
0 0 0 0 0 0 0 0 0 0 0 0 0 0 0 0 0 0 0 0 0 0 0 0 0 0 0 0 0 0 0 0 0 0 0 0 0 0 0 0 0 0 0
0 0 0 0 0 0 0 0 0 0 0 0 0 0 0 0 0 0 0 0 0 0 0 0 0 0 0 0 0 0 0 0 0 0 0 0 0 0 0 0 0 0 0
0 0 0 0 0 0 0 0 0 0 0 0 0 0 0 0 0 0 0 0 0 0 0 0 0 0 0 0 0 0 0 0 0 0 0 0 0 0 0 0 0 0 0
0 0 0 0 0 0 0 0 0 0 0 0 0 0 0 0 0 0 0 0 0 0 0 0 0 0 0 0 0 0 0 0 0 0 0 0 0 0 0 0 0 0 0
0 0 0 0 0 0 0 0 0 0 0 0 0 0 0 0 0 0 0 0 0 0 0 0 0 0 0 0 0 0 0 0 0 0 0 0 0 0 0 0 0 0 0

GFSSE_con_mlcape_018.txt.gz
CAPE
95 473 753 941 1110 1226 1245 1258 1151 1106 981 797 1098 1301 1530 1433 1271 1183 1185 1124 1413 1431 1545 1452 1173 1122 860 662 740 680 578 455 455 364 470 683 854 520 499 670 808 802 789
113 505 851 988 1148 1252 1557 1652 1477 1346 1246 1146 961 968 1387 1407 1313 1172 1163 1184 1020 1022 1358 1259 1324 1416 1144 673 489 316 315 329 336 386 610 686 1057 811 531 467 647 752 643
82 368 703 1007 1158 1075 1391 1671 1711 1746 1626 1385 1366 1301 1163 1257 1300 1137 1114 763 482 812 982 1011 1135 1329 1039 843 670 668 379 167 180 322 493 415 484 1009 664 703 778 820 615
43 199 606 939 1042 1087 1126 1207 1355 1508 1771 1952 1778 1727 1705 1626 1539 1392 906 437 346 823 728 804 1076 1267 1141 1099 768 536 481 511 570 684 638 326 318 453 865 752 930 707 436
48 112 492 668 798 843 915 1015 1180 1357 1500 1677 1906 1967 1920 1797 1832 1458 1159 879 1011 1224 1090 1062 1142 996 1052 1076 728 681 433 356 425 597 454 548 504 629 799 454 355 822 593
102 86 260 267 323 350 260 236 272 452 989 1548 1823 1869 1833 1626 1263 826 632 579 1010 1217 1383 1166 1227 1242 905 683 384 166 0 0 0 254 409 546 419 405 664 695 512 403 523
89 31 175 290 328 344 296 207 223 310 469 664 973 1366 1535 1576 1547 1453 1212 770 1195 1217 1189 1746 1253 1128 858 561 302 189 110 19 213 388 365 309 376 544 769 842 619 221 599
112 186 217 349 304 368 419 399 468 527 679 664 690 963 1061 1099 1112 1097 1155 1225 997 593 387 294 139 639 481 199 46 340 388 383 297 193 138 81 120 283 623 655 770 362 242
385 467 487 563 490 378 265 274 383 565 639 776 699 650 529 548 662 797 911 987 861 885 897 751 456 472 570 446 324 239 193 140 8 0 0 0 34 136 285 569 480 681 188
519 609 709 682 595 369 148 266 284 457 663 766 760 590 473 407 425 488 426 493 361 319 341 384 309 196 75 6 0 9 15 0 0 0 0 0 0 363 537 492 323 654 432
800 742 736 801 709 435 44 166 268 321 463 669 674 500 352 275 169 106 175 141 72 23 7 0 0 0 0 0 0 0 0 0 0 0 0 0 0 28 483 527 500 700 479
1035 1083 854 875 834 567 242 66 183 261 323 409 472 358 280 157 41 11 0 0 1 0 0 0 0 0 0 0 0 0 0 0 0 0 0 0 0 0 29 154 351 283 333
1014 1067 893 777 669 635 565 127 100 164 246 260 197 307 244 221 65 2 0 0 0 0 0 0 0 0 0 0 0 0 0 0 0 0 0 0 0 0 0 11 67 267 227
776 754 360 65 0 9 169 262 105 208 214 208 240 150 133 133 96 5 0 0 0 0 0 0 0 0 0 0 0 0 0 0 0 0 0 0 0 0 0 23 44 41 80
505 105 0 0 0 0 36 66 95 181 228 126 58 6 10 10 0 0 0 0 0 0 0 0 0 0 0 0 0 0 0 0 0 0 0 0 0 0 0 0 1 51 79
59 0 0 0 0 0 0 0 31 82 14 3 0 0 0 0 0 0 0 0 0 0 0 0 0 0 0 0 0 0 0 0 0 0 0 0 0 0 0 0 0 0 1
0 0 0 0 0 0 0 0 0 0 0 0 0 0 0 0 0 0 0 0 0 0 0 0 0 0 0 0 0 0 0 0 0 0 0 0 0 0 0 0 0 0 0
0 0 0 0 0 0 0 0 0 0 0 0 0 0 0 0 0 0 0 0 0 0 0 0 0 0 0 0 0 0 0 0 0 0 0 0 0 0 0 0 0 0 0
0 0 0 0 0 0 0 0 0 0 0 0 0 0 0 0 0 0 0 0 0 0 0 0 0 0 0 0 0 0 0 0 0 0 0 0 0 0 0 0 0 0 0
0 0 0 0 0 0 0 0 0 0 0 0 0 0 0 0 0 0 0 0 0 0 0 0 0 0 0 0 0 0 0 0 0 0 0 0 0 0 0 0 0 0 0
0 0 0 0 0 0 0 0 0 0 0 0 0 0 0 0 0 0 0 0 0 0 0 0 0 0 0 0 0 0 0 0 0 0 0 0 0 0 0 0 0 0 0
0 0 0 0 0 0 0 0 0 0 0 0 0 0 0 0 0 0 0 0 0 0 0 0 0 0 0 0 0 0 0 0 0 0 0 0 0 0 0 0 0 0 0
0 0 0 0 0 0 0 0 0 0 0 0 0 0 0 0 0 0 0 0 0 0 0 0 0 0 0 0 0 0 0 0 0 0 0 0 0 0 0 0 0 0 0
0 0 0 0 0 0 0 0 0 0 0 0 0 0 0 0 0 0 0 0 0 0 0 0 0 0 0 0 0 0 0 0 0 0 0 0 0 0 0 0 0 0 0
0 0 0 0 0 0 0 0 0 0 0 0 0 0 0 0 0 0 0 0 0 0 0 0 0 0 0 0 0 0 0 0 0 0 0 0 0 0 0 0 0 0 0
0 0 0 0 0 0 0 0 0 0 0 0 0 0 0 0 0 0 0 0 0 0 0 0 0 0 0 0 0 0 0 0 0 0 0 0 0 0 0 0 0 0 0

GFSSE_con_mlcape_024.txt.gz
CAPE
387 684 649 767 902 957 823 655 531 901 1241 1256 1108 1114 1092 1105 1181 1115 1053 1165 1409 1604 1566 1427 1370 1114 873 731 984 914 790 692 644 866 913 1148 1188 1064 1046 845 928 1034 991
412 689 629 776 947 1059 974 921 819 853 1148 1333 1369 1243 1300 1283 1315 1270 1259 1339 1553 1606 1419 1460 1494 1499 1233 786 586 549 524 491 497 806 668 608 607 1181 1078 894 889 1158 1004
327 668 875 811 1017 1273 1326 1290 1242 1058 1036 1084 1329 1422 1394 1442 1394 1307 1107 962 1084 1016 1099 1064 1401 1530 1513 1166 976 845 703 583 518 518 174 581 604 998 1280 915 1053 1005 1040
301 565 873 836 851 1038 1275 1410 1593 1601 1469 1285 1176 1260 1342 1360 1332 1210 849 705 762 999 1151 1322 1549 1586 1648 1276 919 730 614 549 667 531 1095 722 556 696 1236 1079 1188 1021 1006
170 490 802 772 777 824 894 1088 1228 1410 1622 1664 1691 1707 1727 1661 1429 1288 952 969 972 1445 1582 1565 1870 1366 1093 890 684 360 121 99 103 296 966 1014 967 890 925 1128 649 793 701
100 293 460 523 397 324 263 246 496 969 1355 1585 1680 1729 1629 1514 1337 1119 865 715 1193 1365 1475 1447 1449 1234 718 450 380 345 217 70 50 789 710 950 969 978 803 941 693 614 508
36 119 184 191 203 167 196 264 280 288 342 587 1068 1388 1534 1593 1473 1295 942 1003 987 804 743 850 889 877 589 300 280 320 321 266 522 960 1038 1026 1075 502 613 576 777 672 573
17 194 164 192 242 147 196 216 265 310 322 400 432 478 570 693 778 882 967 942 781 676 369 250 205 312 391 405 382 375 336 325 679 921 812 791 331 584 818 671 792 714 769
71 193 365 428 274 92 132 182 284 360 386 373 306 263 252 278 367 522 568 597 621 629 596 501 364 281 217 150 173 138 82 53 639 575 309 439 13 294 555 773 976 797 717
380 508 723 756 705 678 493 65 193 295 349 347 269 217 181 215 226 276 260 240 218 218 205 129 34 0 0 0 0 0 0 19 504 360 271 128 0 162 560 707 779 530 419
656 939 1009 928 1069 886 502 428 121 150 287 344 395 146 315 652 553 479 26 11 0 0 0 0 0 0 0 0 0 0 0 1 58 97 136 0 0 85 295 298 558 648 682
745 984 1190 1357 1392 1229 433 608 728 656 680 827 855 835 596 805 608 217 54 0 0 0 0 0 0 0 0 0 0 0 0 0 0 0 5 0 0 2 114 240 206 466 462
746 964 1286 1564 1700 1353 512 410 265 397 568 827 1067 1033 894 770 737 636 497 383 349 0 3 0 0 0 0 0 0 0 0 0 0 0 0 0 0 0 0 12 197 201 252
441 786 1543 1651 1462 1027 219 137 250 290 443 568 792 1185 964 604 563 563 377 250 150 4 0 0 0 0 0 0 0 0 0 0 0 0 0 0 0 0 0 0 0 24 81
221 598 1507 1674 1063 134 247 269 460 572 440 644 777 740 863 393 250 235 69 10 0 0 0 0 0 1 0 0 0 0 0 0 0 0 0 0 0 0 0 0 0 0 0
563 881 1539 1275 330 128 128 324 238 410 322 463 251 211 726 503 119 0 0 0 0 0 0 0 0 0 0 0 0 0 0 0 0 0 0 0 0 0 0 0 0 0 0
456 894 1323 959 248 142 122 92 48 4 112 3 0 44 107 141 12 0 0 0 0 0 0 0 0 0 0 0 0 0 0 0 0 0 0 0 0 0 0 0 0 0 0
747 645 784 423 132 93 32 9 0 0 0 0 0 0 0 13 21 0 0 0 0 0 0 0 0 0 0 0 0 0 0 0 0 0 0 0 0 0 0 0 0 0 0
268 397 502 531 251 58 18 4 0 1 0 0 0 0 0 0 1 6 0 0 0 0 0 0 0 0 0 0 0 0 0 0 0 0 0 0 0 0 0 0 0 0 0
2 36 132 259 111 23 8 0 0 0 0 0 0 0 0 0 0 0 0 0 0 0 0 0 0 0 0 0 0 0 0 0 0 0 0 0 0 0 0 0 0 0 0
0 0 6 9 1 0 0 0 0 0 0 0 0 0 0 0 0 0 0 0 0 0 2 0 0 0 0 0 0 0 0 0 0 0 0 0 0 0 0 0 0 0 0
0 0 0 0 0 0 0 0 0 0 0 0 0 0 0 0 0 0 0 0 0 0 0 0 0 0 0 0 0 0 0 0 0 0 0 0 0 0 0 0 0 0 0
0 0 0 0 0 0 0 0 0 0 0 0 0 0 0 0 0 0 0 0 0 0 0 0 0 0 1 0 4 1 0 2 9 8 0 0 0 0 0 0 0 0 0
0 0 0 0 0 0 0 0 0 0 0 0 0 0 0 0 0 0 0 0 0 0 0 0 0 0 1 2 11 10 1 0 2 6 0 0 0 0 0 0 0 0 0
0 0 0 0 0 0 0 0 0 0 0 0 0 0 0 0 0 0 0 0 0 0 0 0 0 2 4 13 15 17 7 3 0 0 0 0 0 0 0 0 0 0 0
0 0 0 0 0 0 0 0 0 0 0 0 0 0 0 0 0 0 0 0 0 0 0 0 1 3 2 2 0 0 0 0 0 0 3 0 0 0 0 0 0 0 0

GFSSE_con_mlcape_027.txt.gz
CAPE
623 503 530 687 795 681 551 564 763 1120 1298 1266 1221 1135 1202 1185 1155 1123 1081 1279 1514 1702 1764 1522 1363 1186 1081 990 1124 1072 945 681 595 640 630 746 886 1117 925 903 1063 1071 696
501 643 629 791 924 865 820 700 791 1028 1226 1146 1094 1237 1151 1184 1147 1146 1142 1294 1460 1485 1579 1464 1618 1675 1388 905 670 628 558 469 404 439 172 731 710 864 893 625 838 1000 947
561 666 740 878 1077 1100 1095 1066 1043 1029 1129 1289 1333 1291 1263 1303 1362 1166 997 1014 1061 1130 1199 1285 1498 1792 1806 1309 1031 861 694 576 460 347 140 326 1305 796 998 828 962 1119 1046
536 710 799 701 988 1124 1189 1298 1347 1327 1193 1136 1231 1297 1314 1343 1267 1109 906 642 814 1245 1447 1685 1842 1521 1419 1158 849 637 477 383 447 469 681 1325 886 856 821 912 1116 938 1032
324 727 688 605 685 783 892 987 1227 1406 1498 1491 1464 1548 1474 1361 1285 1192 956 922 965 1474 1586 1510 1533 1111 855 832 645 415 198 148 141 158 875 1102 1284 1098 928 1023 668 767 606
303 442 429 406 329 298 383 626 849 1076 1267 1437 1592 1663 1576 1492 1320 1103 834 1111 1234 1141 1461 1619 1396 993 626 467 391 387 367 287 139 683 1034 1091 971 1064 1035 961 732 727 657
58 124 218 97 66 49 53 125 202 333 672 1093 1347 1410 1463 1392 1276 1176 1010 998 825 769 548 574 827 629 451 326 335 331 321 277 346 804 916 895 1039 910 863 820 914 842 805
2 31 0 12 56 101 182 200 201 205 316 481 604 755 782 715 698 680 737 720 641 478 346 294 321 326 317 293 279 277 241 216 500 614 488 766 600 527 1081 954 666 712 824
0 18 113 212 117 13 47 112 203 215 219 165 136 153 165 224 318 411 415 464 451 365 345 278 206 166 120 115 144 112 92 99 235 445 361 378 107 201 759 926 874 669 712
19 140 251 318 482 568 473 21 67 131 200 131 91 60 71 135 187 137 323 109 140 120 87 64 25 9 0 0 0 0 0 0 263 79 180 85 0 124 486 539 727 682 573
228 336 444 408 574 398 229 158 98 65 151 295 301 60 343 729 535 521 10 0 0 0 0 0 0 0 0 0 0 0 0 0 0 0 72 0 0 17 279 336 203 518 690
237 402 524 698 776 557 35 213 319 215 513 509 528 523 442 443 474 47 90 0 0 0 0 0 0 0 0 0 0 0 0 0 0 0 7 0 0 0 12 221 246 407 555
232 258 348 1006 893 543 124 43 87 126 172 441 645 573 515 361 431 326 331 492 520 35 53 2 1 0 0 0 0 0 0 0 0 0 0 0 0 0 0 0 56 250 266
199 148 337 803 779 436 47 0 18 49 204 214 472 570 433 217 175 212 51 23 12 28 20 13 9 2 0 0 0 0 0 0 0 0 0 0 0 0 0 0 0 0 38
28 24 391 1014 1362 78 26 31 83 145 260 418 345 329 302 107 80 29 2 0 0 0 1 2 3 1 4 0 0 0 0 0 0 0 0 0 0 0 0 0 0 0 0
11 91 320 1123 1414 76 18 102 54 218 191 264 99 64 87 106 17 0 0 0 0 0 0 0 0 0 0 0 0 0 0 0 0 0 0 0 0 0 0 0 0 0 0
18 148 515 1220 1158 383 95 92 1 1 0 0 0 0 4 24 6 10 0 0 0 0 0 0 1 2 5 2 0 0 0 0 0 0 0 0 0 0 0 0 0 0 0
55 156 476 853 896 783 59 21 0 0 1 0 0 0 0 3 13 15 7 0 1 13 0 0 4 17 18 13 3 0 0 0 0 0 0 0 0 0 0 0 0 0 0
183 279 471 772 1015 767 123 45 18 19 8 0 0 0 0 0 0 0 0 0 1 0 4 7 4 11 11 12 6 3 0 0 0 0 0 0 0 0 0 0 0 0 0
20 156 379 608 862 564 167 56 7 3 0 0 0 0 0 0 0 0 0 0 12 11 22 35 57 36 38 35 3 4 0 0 0 0 0 0 0 0 0 0 0 0 0
0 4 151 362 192 92 59 13 0 0 0 0 0 0 0 0 0 0 0 0 0 0 0 8 19 11 38 95 49 48 13 1 0 0 0 0 0 0 0 0 0 0 0
0 0 0 0 0 0 0 0 0 0 0 0 0 0 0 0 0 0 0 0 0 0 0 0 0 8 24 78 29 41 0 5 27 5 0 0 0 0 0 0 0 0 0
0 0 0 0 0 0 0 0 0 0 0 0 0 0 0 0 0 0 0 0 0 0 0 0 0 0 3 3 56 78 35 8 68 92 91 33 5 13 0 0 0 0 0
0 0 0 0 0 0 0 0 0 0 0 0 0 0 0 0 0 0 0 0 0 0 0 0 0 5 10 7 12 20 87 96 41 61 94 57 22 20 31 9 2 0 0
0 0 0 0 0 0 0 0 0 0 0 0 0 0 0 0 0 0 0 0 0 0 0 0 1 3 7 9 12 10 0 0 5 0 6 32 51 4 2 13 3 0 0
0 0 0 0 0 0 0 0 0 0 0 0 0 0 0 0 0 0 0 0 0 0 8 12 13 3 0 2 4 3 2 2 1 2 0 3 14 10 1 0 0 0 0

GFSSE_con_mlcape_030.txt.gz
CAPE
406 424 537 671 593 489 470 641 868 1032 1063 1055 967 1021 1102 1131 1094 1086 1151 1225 1461 1543 1576 1604 1548 1482 1119 771 780 716 521 357 339 255 213 855 997 571 492 617 1061 840 963
524 532 649 767 659 665 631 612 881 1058 1075 1107 1088 1065 1154 1157 1126 1141 1208 1277 1382 1387 1263 1335 1439 1679 1540 1075 805 557 501 315 219 134 153 686 963 1012 555 495 939 753 919
502 644 746 790 843 852 843 781 814 1023 1171 1181 1158 1199 1240 1251 1087 987 966 1024 1121 1318 1516 1782 1721 1641 1484 1148 915 703 509 330 258 234 180 154 934 834 591 525 853 1191 1099
712 614 717 779 888 938 1012 1067 1052 1011 1026 1159 1215 1283 1315 1226 1178 993 770 726 864 1292 1466 1824 1669 1391 1108 936 686 471 296 231 191 193 167 602 1051 771 858 474 925 1017 841
700 552 475 556 645 734 848 1034 1154 1202 1199 1215 1263 1283 1244 1237 1293 1143 958 1055 1253 1218 1273 1642 1254 738 598 584 544 486 377 237 155 76 163 686 805 1086 975 572 921 856 613
416 403 284 240 255 310 444 601 770 947 1112 1264 1406 1448 1426 1351 1195 892 1195 1026 886 885 1104 1377 1163 803 532 393 312 283 256 256 195 247 668 794 823 1087 992 940 575 697 597
205 139 0 0 0 8 13 14 64 297 620 868 1038 1122 1066 970 897 823 754 654 665 462 373 413 330 181 87 141 224 252 240 184 161 387 544 956 907 1012 1091 955 646 695 621
0 0 0 0 0 15 53 41 62 150 202 264 293 310 294 297 330 373 383 364 360 353 315 248 212 197 167 138 127 105 78 60 78 423 628 653 641 625 757 983 912 684 622
0 0 9 1 0 0 4 29 39 35 28 38 58 63 77 85 107 154 228 208 186 186 177 153 107 76 40 31 38 19 6 4 1 101 397 220 212 256 368 536 726 672 501
0 8 153 139 294 193 20 2 13 32 12 10 4 7 98 131 137 241 274 42 0 0 0 0 0 0 0 0 0 0 0 0 0 57 64 31 68 137 193 251 282 628 595
16 177 158 361 391 655 258 23 15 9 84 102 39 58 182 588 439 500 31 0 0 0 0 0 0 0 0 0 0 0 0 0 0 0 4 0 0 11 56 215 174 155 125
144 201 507 374 460 236 31 130 494 367 502 549 581 407 596 254 317 82 112 7 0 0 0 0 0 0 0 0 0 0 0 0 0 0 0 0 0 0 0 5 203 241 432
153 241 364 595 520 459 56 40 343 332 464 602 500 457 439 235 399 385 329 88 68 94 72 33 0 0 3 0 0 0 0 0 0 0 0 0 0 0 0 0 2 191 261
148 137 519 471 486 285 45 60 57 78 276 247 629 501 390 239 174 43 49 0 0 7 6 2 4 5 2 4 0 0 0 0 0 0 0 0 0 0 0 0 0 22 122
189 59 407 568 617 151 0 64 126 115 405 334 305 325 297 90 87 39 1 0 0 0 0 0 0 0 0 0 3 0 0 0 0 0 0 0 0 0 0 0 0 0 0
11 31 569 934 1216 67 19 96 68 262 248 318 123 74 26 93 59 32 1 0 0 0 0 0 0 0 0 0 0 0 0 0 0 0 0 0 0 0 0 0 0 0 0
10 85 299 961 1303 405 69 115 29 60 6 5 1 0 7 11 13 0 5 0 0 3 0 0 0 0 0 0 0 0 0 0 0 0 0 0 0 0 0 0 0 0 0
0 70 414 762 1215 1011 444 83 21 10 6 0 0 0 0 0 5 7 22 18 19 15 11 15 10 2 1 1 0 0 0 0 0 0 0 0 0 0 0 0 0 0 0
194 283 443 600 903 984 664 147 36 14 6 15 1 0 0 0 1 0 1 3 12 15 12 21 18 26 23 21 6 1 0 5 0 0 0 0 0 0 0 0 0 0 0
9 92 248 505 966 823 332 90 37 5 11 10 0 0 0 0 0 0 0 0 1 2 1 6 12 22 39 43 34 30 12 10 2 4 0 0 0 0 0 0 0 0 0
1 43 114 126 47 35 60 2 0 0 0 0 0 0 0 1 0 0 0 0 0 0 0 0 0 0 0 26 53 14 0 0 18 10 0 0 0 0 0 0 0 0 0
0 0 0 0 0 0 0 0 0 0 0 0 1 0 0 0 0 0 0 0 0 0 0 0 0 0 0 0 18 41 3 0 0 3 46 3 0 0 0 0 0 0 0
0 0 0 0 0 0 0 0 0 0 0 0 1 0 0 0 0 0 0 0 0 0 0 0 0 0 0 0 0 42 27 7 12 0 6 30 39 11 13 2 0 0 0
0 0 0 0 0 0 0 0 0 0 0 0 0 0 0 0 0 0 0 0 0 0 0 0 0 0 3 0 0 2 3 1 6 1 0 5 101 77 56 2 3 0 0
0 0 0 0 0 0 0 0 0 0 0 0 0 0 0 0 0 0 0 0 0 0 0 4 0 0 0 0 0 0 0 0 0 6 2 0 0 0 0 0 0 0 0
0 0 0 0 0 0 0 0 0 0 0 0 0 0 0 0 0 0 0 0 0 0 0 0 0 0 0 0 0 0 0 3 2 1 2 1 1 0 0 0 0 0 0

GFSSE_con_mlcape_033.txt.gz
CAPE
272 492 515 360 277 347 600 725 883 928 911 824 949 1043 966 952 971 1040 1119 1212 1308 1371 1407 1463 1514 1469 1147 906 694 568 393 229 163 208 498 1061 843 1190 930 1431 1106 927 1146
393 610 451 489 456 425 585 781 821 911 896 919 960 969 973 928 936 999 1044 1113 1150 1285 1444 1521 1547 1847 1491 1164 950 746 481 289 161 137 158 142 972 661 615 886 894 904 910
452 559 590 615 681 672 656 774 910 977 994 1004 1064 1116 1024 888 803 749 733 786 1033 1158 1499 1653 1504 1392 1261 984 788 591 422 326 213 160 117 337 754 590 207 389 789 1075 989
485 576 642 681 731 788 775 744 757 946 1013 1038 1140 1117 1062 1018 843 793 672 687 951 1138 1355 1602 1386 1080 832 700 584 488 393 324 255 152 20 786 809 692 322 255 472 851 968
387 460 524 560 642 761 854 914 907 963 988 1019 1038 1036 1048 1060 947 853 1034 950 936 1215 1475 1452 1019 659 439 323 294 304 321 323 302 223 105 719 943 877 738 534 597 517 742
209 239 295 321 378 445 528 644 712 819 926 1022 1067 1140 1172 1121 860 873 622 605 541 522 779 940 520 275 93 67 117 164 171 146 136 58 231 892 777 856 899 838 633 735 678
46 4 0 0 0 3 0 2 129 331 443 545 637 623 562 454 412 314 331 296 210 162 143 126 95 60 54 42 33 16 10 6 17 15 302 873 1046 881 1136 808 568 614 632
0 0 0 0 0 0 0 0 0 11 28 63 88 95 87 56 92 106 140 167 178 184 145 98 74 60 43 23 17 8 1 0 0 0 276 473 738 935 768 530 560 612 524
0 0 0 0 0 0 0 0 0 0 2 5 4 6 8 45 70 74 28 1 4 1 0 0 0 0 0 0 0 0 0 0 0 0 97 101 207 340 351 176 378 535 518
0 0 0 0 0 0 0 0 0 0 0 0 0 8 32 77 150 119 68 0 0 0 0 0 0 0 0 0 0 0 0 0 0 0 0 9 69 174 161 95 15 51 353
0 16 29 31 39 3 0 0 0 2 4 3 11 65 161 172 289 237 115 0 0 0 0 0 0 0 0 0 0 0 0 0 0 0 0 0 0 11 2 0 24 24 138
91 164 193 219 287 159 21 8 0 36 139 138 103 103 192 320 354 244 58 14 15 7 3 0 0 0 0 0 0 0 0 0 0 0 0 0 0 0 0 0 0 7 138
65 278 328 234 75 147 142 49 124 69 233 310 417 202 352 143 261 169 131 53 12 13 8 17 0 0 0 0 0 0 0 0 0 0 0 0 0 0 0 0 0 0 105
92 300 350 111 123 15 0 0 205 306 382 446 502 275 115 77 53 15 40 13 0 0 0 0 0 0 0 0 0 0 0 0 0 0 0 0 0 0 0 0 0 0 13
195 317 259 106 8 0 0 0 0 84 76 117 326 203 83 31 21 21 0 0 0 0 0 0 0 0 0 0 0 0 0 0 0 0 0 0 0 0 0 0 0 0 12
122 275 361 300 221 0 2 2 24 54 130 43 144 76 38 15 12 7 0 0 0 0 0 0 0 0 0 0 0 0 0 0 0 0 0 0 0 0 0 0 0 0 0
17 187 382 597 267 0 6 12 1 199 6 2 1 0 0 0 1 0 0 2 0 0 0 0 0 0 0 0 0 0 0 0 0 0 0 0 0 0 0 0 0 0 0
0 178 537 1065 183 20 89 100 0 0 0 0 0 0 0 0 0 0 0 0 0 0 0 0 0 0 0 0 0 0 0 0 0 0 0 0 0 0 0 0 0 0 0
74 186 461 922 597 492 156 44 0 0 0 0 0 0 0 0 0 0 0 0 0 0 0 0 0 0 0 0 0 0 0 0 0 0 0 0 0 0 0 0 0 0 0
1 13 35 117 96 80 46 13 0 0 0 0 0 0 0 0 0 0 0 0 0 0 0 0 0 0 0 0 0 0 0 0 0 0 0 0 0 0 0 0 0 0 0
0 0 0 0 0 0 0 0 0 0 0 0 0 0 0 0 0 0 0 0 0 0 0 0 0 0 0 0 0 0 0 0 0 0 0 0 0 0 0 0 0 0 0
0 0 0 0 0 0 0 0 0 0 0 0 0 0 0 0 0 0 0 0 0 0 0 0 0 0 0 0 0 0 0 0 0 0 0 0 0 0 0 0 0 0 0
0 0 0 0 0 0 0 0 0 0 0 0 0 0 0 0 0 0 0 0 0 0 0 0 0 0 0 0 0 0 0 3 0 0 0 0 0 0 0 0 0 0 0
0 0 0 0 0 0 0 0 0 0 0 0 0 0 0 0 0 0 0 0 0 0 0 0 0 0 0 0 0 0 0 0 3 0 0 0 0 0 0 0 0 0 0
0 0 0 0 0 0 0 0 0 0 0 0 0 0 0 0 0 0 0 0 0 0 0 0 0 0 0 0 0 0 0 0 0 0 0 0 0 0 0 0 0 0 0
0 0 0 0 0 0 0 0 0 0 0 0 0 0 0 0 0 0 0 0 0 0 0 0 0 0 0 0 0 0 0 0 0 2 1 0 0 0 0 0 0 0 0

GFSSE_con_mlcape_036.txt.gz
CAPE
380 433 190 247 436 532 685 669 705 697 678 739 716 734 751 823 911 975 990 1003 1020 1127 1212 1305 1403 1271 1104 951 785 650 441 334 357 316 345 1070 928 695 1437 1240 1432 1227 1068
462 364 291 277 467 583 681 793 773 716 796 837 820 794 775 836 877 901 951 1060 1209 1485 1491 1426 1524 1411 1213 972 819 679 469 264 184 176 221 415 871 470 498 926 1156 1294 1039
409 483 456 421 461 645 711 743 786 837 890 933 925 808 756 671 618 560 540 748 951 1221 1499 1348 1217 1161 929 713 563 468 385 316 190 121 96 257 788 491 222 458 532 1160 1265
504 549 559 560 531 546 735 870 903 954 993 997 945 886 794 703 601 591 697 779 896 1087 1537 1383 980 728 508 388 335 326 324 302 231 176 121 765 940 752 337 384 502 715 1074
428 506 575 613 650 643 594 659 750 820 869 888 844 842 800 723 801 781 619 574 739 1316 1357 1102 770 426 185 100 94 130 131 110 66 18 160 533 906 803 605 344 427 404 700
294 371 437 500 563 606 635 733 770 788 825 858 921 952 874 783 574 354 257 148 189 290 388 152 50 11 4 4 10 9 5 1 0 0 72 686 926 772 735 707 757 850 680
127 154 158 90 74 165 274 366 453 555 641 720 676 534 378 201 88 62 37 19 27 32 27 12 8 5 1 5 7 0 0 0 0 0 344 629 816 468 458 588 497 487 478
0 0 0 0 0 0 0 0 10 37 63 65 56 52 35 14 12 4 0 0 0 0 0 0 0 0 0 0 0 0 0 0 0 0 18 516 733 701 463 630 374 319 302
0 0 0 0 0 0 0 0 0 0 0 1 2 2 7 17 5 10 0 0 0 0 0 0 0 0 0 0 0 0 0 0 0 0 15 153 444 553 459 287 192 340 329
0 0 0 0 0 0 0 0 0 0 0 0 0 8 35 67 46 58 0 0 0 0 0 0 0 0 0 0 0 0 0 0 0 0 0 0 59 294 354 83 9 0 181
0 0 0 0 0 0 0 0 0 0 0 0 32 39 78 97 120 157 62 0 0 0 0 0 0 0 0 0 0 0 0 0 0 0 0 0 1 193 267 19 0 0 31
0 0 0 0 0 0 0 0 0 0 10 11 28 129 163 146 171 220 127 18 3 0 0 0 0 0 0 0 0 0 0 0 0 0 0 0 0 27 0 0 0 0 0
7 42 23 46 36 5 24 0 0 113 139 110 83 97 172 290 301 294 71 11 0 0 0 0 0 0 0 0 0 0 0 0 0 0 0 0 0 0 0 0 0 0 0
105 156 164 141 225 81 116 39 94 88 213 309 336 204 184 100 124 79 18 0 0 0 0 0 0 0 0 0 0 0 0 0 0 0 0 0 0 0 0 0 0 0 0
202 266 167 2 0 0 0 14 111 249 321 435 419 160 9 4 0 0 0 0 0 0 0 0 0 0 0 0 0 0 0 0 0 0 0 0 0 0 0 0 0 0 0
293 307 205 0 0 0 0 0 0 45 152 143 278 160 28 3 0 0 0 0 0 0 0 0 0 0 0 0 0 0 0 0 0 0 0 0 0 0 0 0 0 0 0
214 331 280 0 0 0 0 2 2 54 15 79 141 57 33 0 0 0 0 0 0 0 0 0 0 0 0 0 0 0 0 0 0 0 0 0 0 0 0 0 0 0 0
173 277 211 154 2 1 0 1 0 55 0 0 10 0 0 0 0 0 0 0 0 0 0 0 0 0 0 0 0 0 0 0 0 0 0 0 0 0 0 0 0 0 0
17 247 417 78 62 175 58 11 0 0 0 0 0 0 0 0 0 0 0 0 0 0 0 0 0 0 0 0 0 0 0 0 0 0 0 0 0 0 0 0 0 0 0
0 12 32 36 133 263 17 0 0 0 0 0 0 0 0 0 0 0 0 0 0 0 0 0 0 0 0 0 0 0 0 0 0 0 0 0 0 0 0 0 0 0 0
0 0 0 0 0 0 0 0 0 0 0 0 0 0 0 0 0 0 0 0 0 0 0 0 0 0 0 0 0 0 0 0 0 0 0 0 0 0 0 0 0 0 0
0 0 0 0 0 0 0 0 0 0 0 0 0 0 0 0 0 0 0 0 0 0 0 0 0 0 0 0 0 0 0 0 0 0 0 0 0 0 0 0 0 0 0
0 0 0 0 0 0 0 0 0 0 0 0 0 0 0 0 0 0 0 0 0 0 0 0 0 0 0 0 0 1 0 0 0 0 0 0 0 0 0 0 0 0 0
0 0 0 0 0 0 0 0 0 0 0 0 0 0 0 0 0 0 0 0 0 0 0 0 0 0 0 1 0 0 0 0 0 0 0 0 0 0 0 0 0 0 0
0 0 0 0 0 0 0 0 0 0 0 0 0 0 0 0 0 0 0 0 0 0 0 0 0 0 0 0 0 0 0 0 0 0 0 0 0 0 0 0 0 0 0
0 0 0 0 0 0 0 0 0 0 0 0 0 0 0 0 0 0 0 0 0 0 0 0 0 0 0 0 0 0 0 0 2 2 2 1 1 0 0 0 0 0 0

GFSSE_con_mlcape_042.txt.gz
CAPE
213 191 333 484 578 410 340 282 350 392 418 485 533 554 589 603 604 575 556 655 861 1007 1210 1110 1026 963 832 609 472 361 286 223 202 275 354 884 899 1087 1449 1409 1259 1179 1083
259 207 413 532 589 488 440 433 464 483 499 502 518 521 542 550 551 611 723 883 956 960 931 838 791 650 478 339 294 309 299 262 241 231 233 345 692 557 304 504 890 1048 1133
170 284 460 588 602 613 553 578 625 576 537 550 550 524 485 411 395 472 530 710 969 949 883 804 549 309 134 78 57 82 87 79 76 112 146 380 458 605 479 368 648 763 884
195 382 504 653 692 677 710 710 675 665 648 606 572 529 481 462 504 503 572 658 967 639 511 578 188 22 0 0 0 0 0 0 0 7 29 292 694 878 594 390 412 436 692
263 441 556 600 653 674 666 707 780 754 684 634 572 513 566 626 538 375 295 581 674 543 369 142 14 0 0 0 0 1 0 0 0 0 20 140 492 744 870 484 458 460 351
292 348 495 560 601 628 672 770 740 692 623 554 553 631 654 400 125 29 25 72 160 129 72 23 0 0 0 0 0 0 0 0 0 0 15 80 502 764 634 470 520 555 537
331 374 361 408 507 573 629 643 587 527 503 597 592 522 242 21 5 2 4 13 21 7 0 0 0 0 0 0 0 0 0 0 0 0 0 209 379 681 646 287 143 254 360
345 396 420 453 460 468 519 501 473 465 466 464 260 79 4 0 0 0 0 0 0 0 0 0 0 0 0 0 0 0 0 0 0 0 0 26 252 527 404 211 171 146 214
230 191 159 136 136 172 212 180 196 221 151 27 2 0 0 0 0 0 0 0 0 0 0 0 0 0 0 0 0 0 0 0 0 0 0 0 0 64 197 95 79 8 0
0 0 0 0 0 0 0 0 0 0 0 0 0 0 0 0 0 0 0 0 0 0 0 0 0 0 0 0 0 0 0 0 0 0 0 0 0 0 85 314 116 0 0
0 0 0 0 0 0 0 0 0 0 0 0 0 0 18 0 5 34 1 0 0 0 0 0 0 0 0 0 0 0 0 0 0 0 0 0 0 0 0 91 115 0 0
0 0 0 0 0 0 0 0 0 0 0 0 0 19 13 17 49 81 99 67 20 0 0 0 0 0 0 0 0 0 0 0 0 0 0 0 0 0 0 0 0 0 0
0 0 0 0 0 0 0 0 0 0 0 0 14 30 66 71 67 114 90 23 0 0 0 0 0 0 0 0 0 0 0 0 0 0 0 0 0 0 0 0 0 0 0
0 0 0 0 0 0 0 0 0 0 0 0 9 60 93 114 112 108 112 38 0 0 0 0 0 0 0 0 0 0 0 0 0 0 0 0 0 0 0 0 0 0 0
0 0 0 0 0 0 0 0 0 0 38 62 116 170 211 157 82 18 14 0 0 0 0 0 0 0 0 0 0 0 0 0 0 0 0 0 0 0 0 0 0 0 0
0 0 0 0 0 0 0 0 0 0 8 82 205 282 237 49 0 0 0 0 0 0 0 0 0 0 0 0 0 0 0 0 0 0 0 0 0 0 0 0 0 0 0
0 0 0 0 0 0 0 0 0 0 8 78 126 123 28 0 0 0 0 0 0 0 0 0 0 0 0 0 0 0 0 0 0 0 0 0 0 0 0 0 0 0 0
0 2 6 0 0 0 0 0 0 0 0 0 0 0 0 0 0 0 0 0 0 0 0 0 0 0 0 0 0 0 0 0 0 0 0 0 0 0 0 0 0 0 0
0 0 0 0 0 0 0 0 0 0 0 0 0 0 0 0 0 0 0 0 0 0 0 0 0 0 0 0 0 0 0 0 0 0 0 0 0 0 0 0 0 0 0
0 0 0 0 0 0 0 0 0 0 0 0 0 0 0 0 0 0 0 0 0 0 0 0 0 0 0 0 0 0 0 0 0 0 0 0 0 0 0 0 0 0 0
0 3 5 0 4 0 0 0 0 0 0 0 0 0 0 0 0 0 0 0 0 0 0 0 0 0 0 0 0 0 0 0 0 0 0 0 0 0 0 0 0 0 0
0 0 0 0 0 0 0 0 0 0 0 0 0 0 0 0 0 0 0 0 0 0 0 0 0 0 0 0 0 0 0 0 0 0 0 0 0 0 0 0 0 0 0
0 0 0 0 0 0 0 0 0 0 0 0 0 0 0 0 0 0 0 0 0 0 0 0 0 0 0 0 0 0 0 0 0 0 0 0 0 0 0 0 0 0 0
0 0 0 0 0 0 0 0 0 0 0 0 0 0 0 0 0 0 0 0 0 0 0 0 0 0 0 0 0 0 0 0 0 0 0 0 0 0 0 0 0 0 0
0 0 0 0 0 0 0 0 0 0 0 0 0 0 0 0 0 0 0 0 0 0 0 0 0 0 0 0 0 0 0 0 0 1 1 0 0 0 0 0 0 0 0
0 0 0 0 0 0 0 0 0 0 0 0 0 0 0 0 0 0 0 0 0 0 0 0 0 0 0 0 0 1 0 1 0 4 5 6 2 0 0 0 0 0 0

GFSSE_con_mlcape_045.txt.gz
CAPE
237 232 457 478 361 301 361 440 407 453 524 549 563 542 532 521 520 498 584 594 722 889 842 784 690 620 496 350 259 248 194 156 139 167 210 579 789 846 833 898 1103 1175 1077
277 312 510 586 436 330 421 453 465 506 546 563 584 541 512 508 558 636 694 684 687 805 815 746 616 460 279 139 125 126 95 63 50 82 190 335 439 488 502 455 624 940 1115
233 480 726 670 524 437 521 546 493 517 559 599 548 489 441 421 433 444 540 687 766 615 776 599 315 104 25 5 0 4 4 4 0 7 97 657 772 723 461 313 456 553 880
315 590 819 666 633 594 675 608 532 594 619 581 502 420 368 350 364 433 513 779 574 461 513 174 18 0 0 0 0 0 0 0 0 0 186 596 763 745 544 376 353 445 517
430 659 836 740 730 744 705 685 695 674 588 523 478 408 501 568 530 476 632 591 444 309 101 25 0 0 0 0 0 0 0 0 0 0 211 400 878 880 851 437 460 418 357
480 690 733 753 748 776 780 804 687 614 533 434 417 633 635 394 118 61 113 221 111 46 6 0 0 0 0 0 0 0 0 0 0 0 98 523 800 950 913 612 376 302 237
388 627 708 662 710 800 828 744 636 564 446 443 561 526 259 88 22 0 0 2 0 0 0 0 0 0 0 0 0 0 0 0 0 0 71 458 731 656 607 370 234 241 157
341 474 618 652 708 726 694 629 521 487 474 475 386 132 52 11 0 0 0 0 0 0 0 0 0 0 0 0 0 0 0 0 0 0 0 2 43 162 367 160 59 19 0
427 455 531 607 594 531 486 478 430 412 358 142 15 10 0 0 0 0 0 0 0 0 0 0 0 0 0 0 0 0 0 0 0 0 0 0 0 0 52 318 256 125 0
325 361 332 316 418 454 436 272 247 159 0 0 0 0 0 0 0 0 0 0 0 0 0 0 0 0 0 0 0 0 0 0 0 0 0 0 0 0 0 0 164 38 0
89 2 0 0 0 2 19 26 0 0 0 0 0 0 0 66 107 58 0 0 0 0 0 2 0 0 0 0 0 0 0 0 0 0 0 0 0 0 0 0 0 0 0
0 0 0 0 0 0 0 0 0 0 0 4 40 61 99 122 179 175 125 35 12 0 0 0 0 0 3 0 0 0 0 0 0 0 0 0 0 0 0 0 0 0 0
0 0 0 0 0 0 0 0 0 0 0 0 35 80 144 172 216 344 352 184 95 0 2 0 0 0 0 0 0 0 0 0 0 0 0 0 0 0 0 0 0 0 0
0 0 0 0 0 0 0 0 0 0 0 22 66 114 228 345 333 333 364 262 36 0 0 0 0 0 0 0 0 0 0 0 0 0 0 0 0 0 0 0 0 0 0
0 0 0 0 0 0 0 0 0 0 28 94 136 233 300 437 357 131 95 3 0 0 0 0 0 0 0 0 0 0 0 0 0 0 0 0 0 0 0 0 0 0 0
0 0 0 0 0 0 0 0 0 19 54 95 178 262 226 109 4 0 0 0 0 0 0 0 0 0 0 0 0 0 0 0 0 0 0 0 0 0 0 0 0 0 0
0 0 0 0 0 0 0 0 0 0 0 0 7 2 3 6 0 0 0 0 0 0 0 0 0 0 0 0 0 0 0 0 0 0 0 0 0 0 0 0 0 0 0
0 0 0 0 0 0 0 0 0 0 0 0 0 0 0 0 0 0 0 0 0 0 0 0 0 0 0 0 0 0 0 0 0 0 0 0 0 0 0 0 0 0 0
0 0 0 0 0 0 0 0 0 0 0 0 0 0 0 0 0 0 0 0 0 0 0 0 0 0 0 0 0 0 0 0 0 0 0 0 0 0 0 0 0 0 0
0 1 2 1 1 0 0 0 0 0 0 0 0 0 0 0 0 0 0 0 0 0 0 0 0 0 0 0 0 0 0 0 0 0 0 0 0 0 0 0 0 0 0
34 36 38 1 0 0 1 0 0 0 0 0 0 0 0 0 0 0 0 0 0 0 0 0 0 0 0 0 0 0 0 0 0 0 0 0 0 0 0 0 0 0 0
65 72 4 0 0 0 0 0 0 0 0 0 0 0 0 0 0 0 0 0 0 0 0 0 0 0 0 0 0 0 0 0 0 0 0 0 0 0 0 0 0 0 0
0 0 0 0 0 0 0 0 0 0 0 0 0 0 0 0 0 0 0 0 0 0 0 0 0 0 0 0 1 0 0 0 0 0 0 0 0 0 0 0 0 0 1
0 0 0 0 0 0 0 0 0 0 0 0 0 0 0 0 0 0 0 0 0 0 0 0 0 0 0 0 0 5 6 9 4 1 0 0 0 0 0 0 0 0 0
0 0 0 0 0 0 0 0 0 0 0 0 0 0 0 0 0 0 0 0 0 0 0 0 0 0 0 0 1 0 0 1 3 11 9 4 9 3 0 0 0 0 0
0 0 0 0 0 0 0 0 0 0 0 0 0 0 0 0 0 0 0 0 0 0 0 0 0 0 0 0 0 4 8 12 14 16 16 9 16 8 7 1 0 0 0

GFSSE_con_mlcape_048.txt.gz
CAPE
259 566 404 212 249 286 283 314 346 383 414 453 477 499 519 493 484 525 598 755 741 756 719 656 587 487 353 262 168 108 62 37 45 64 220 569 549 392 451 380 625 702 1087
305 642 440 350 286 361 371 339 393 461 483 487 487 503 506 513 570 596 604 649 758 683 641 575 399 196 68 41 15 1 1 1 1 17 188 268 395 447 302 318 307 673 999
347 678 629 453 349 426 468 510 576 592 576 554 541 529 510 525 557 631 672 635 527 574 408 179 23 9 0 0 0 0 0 0 0 28 270 566 882 676 426 283 390 465 696
478 636 809 493 427 544 553 581 651 679 624 563 530 449 428 382 373 420 672 403 415 382 128 49 22 8 0 0 0 0 0 0 0 39 238 466 584 671 600 429 383 419 400
685 827 917 599 549 646 607 661 735 674 583 535 491 506 533 546 607 701 575 365 226 85 29 3 0 0 0 0 0 0 0 0 0 0 204 642 753 569 797 255 283 234 165
816 961 752 711 670 711 729 718 660 588 521 442 505 623 505 290 143 180 192 100 37 0 0 0 0 0 0 0 0 0 0 0 0 0 49 427 742 683 657 360 199 89 29
792 1012 1067 753 808 798 811 755 666 550 438 499 606 398 168 57 22 14 8 0 0 0 0 0 0 0 0 0 0 0 0 0 0 0 0 93 351 488 512 366 64 0 0
798 872 889 811 825 848 798 671 589 483 458 515 348 91 54 2 0 0 0 0 0 0 0 0 0 0 0 0 0 0 0 0 0 0 0 0 0 0 31 330 327 92 0
680 839 875 911 820 739 651 558 481 452 476 323 53 2 0 0 0 0 0 0 0 0 0 0 0 0 0 0 0 0 0 0 0 0 0 0 0 0 0 0 89 292 9
659 661 642 599 572 570 583 446 377 359 172 12 0 0 0 0 0 0 0 0 0 0 0 0 0 0 0 0 0 0 0 0 0 0 0 0 0 0 0 0 0 0 0
606 595 438 347 368 323 207 271 172 49 17 0 1 0 46 209 258 168 0 3 10 0 0 0 0 0 0 0 0 0 0 0 0 0 0 0 0 0 0 0 0 0 0
354 143 121 126 75 20 0 31 60 5 1 180 260 323 359 558 609 458 235 44 12 0 0 0 0 0 0 0 0 0 0 0 0 0 0 0 0 0 0 0 0 0 0
2 0 5 13 24 2 0 1 0 0 18 372 607 642 693 652 763 748 787 634 582 33 26 0 0 0 0 0 0 0 0 0 0 0 0 0 0 0 0 0 0 0 0
0 0 0 9 15 16 0 0 6 98 359 476 638 766 886 871 889 760 733 766 600 114 21 5 4 13 0 0 0 0 0 0 0 0 0 0 0 0 0 0 0 0 0
0 0 28 32 3 13 103 189 282 444 529 716 732 904 1022 1116 1041 806 733 481 195 81 36 26 7 0 0 0 0 0 0 0 0 0 0 0 0 0 0 0 0 0 0
0 0 155 168 198 178 264 389 437 479 512 732 836 1019 905 747 360 192 171 145 65 1 0 0 0 0 0 0 0 0 0 0 0 0 0 0 0 0 0 0 0 0 0
0 24 224 327 427 375 153 25 0 0 1 48 138 169 331 365 224 139 102 7 0 0 0 0 0 0 0 0 0 0 0 0 0 0 0 0 0 0 0 0 0 0 0
0 112 245 229 216 39 15 6 0 0 0 1 21 32 24 13 2 0 0 0 0 0 0 0 0 0 0 0 0 0 0 0 0 0 0 0 0 0 0 0 0 0 0
54 267 284 267 33 2 0 0 1 0 7 0 0 0 0 0 0 0 0 0 0 0 0 0 0 0 0 0 0 0 0 0 0 0 0 0 0 0 0 0 0 0 0
328 428 390 316 2 0 0 0 0 0 0 0 0 0 0 0 0 0 0 0 0 0 0 0 0 0 0 0 0 0 0 0 0 0 0 0 0 0 0 0 0 0 0
400 337 374 66 1 0 0 0 0 0 0 0 0 0 0 0 0 0 0 0 0 0 0 0 0 0 0 0 0 0 0 0 10 4 1 0 0 0 0 0 0 0 0
520 473 428 265 85 169 49 0 0 0 0 0 0 0 0 0 0 0 0 0 0 0 0 0 0 0 0 0 0 0 0 0 0 13 13 5 1 0 0 0 0 0 0
580 465 308 302 285 32 0 0 0 0 0 0 0 0 0 0 0 0 0 0 0 0 0 0 0 0 0 0 0 0 0 0 0 0 3 5 4 1 2 3 3 5 2
10 9 1 6 2 0 0 0 0 0 0 0 0 0 0 0 0 0 0 0 0 0 0 0 0 0 0 0 0 0 10 14 10 0 0 0 1 1 0 2 7 15 17
0 0 0 0 0 0 0 0 0 0 0 0 0 0 0 0 0 0 0 0 0 0 0 0 0 0 0 1 4 11 24 13 19 18 17 6 4 13 15 12 10 23 30
0 0 0 0 0 0 0 0 0 0 0 0 0 0 0 0 0 0 0 0 0 2 3 7 10 10 14 17 19 12 6 9 6 2 35 21 10 5 15 10 23 10 8

GFSSE_con_mlcape_051.txt.gz
CAPE
462 390 156 160 343 492 507 520 474 402 368 408 477 478 497 535 558 633 667 643 664 598 575 524 373 213 92 27 7 6 0 0 7 48 201 492 496 399 236 130 520 480 1050
613 420 182 197 236 375 425 378 343 353 407 460 484 462 493 554 593 608 606 638 585 490 503 281 69 31 16 0 0 0 0 0 0 37 189 534 429 456 368 246 212 619 933
618 481 229 257 287 307 349 351 388 384 477 504 496 483 523 594 571 570 510 478 544 413 164 59 41 18 0 0 0 0 0 0 0 40 197 592 658 436 564 350 327 365 805
649 451 327 294 382 413 421 444 482 526 561 532 476 429 372 350 417 670 424 384 310 145 75 32 0 0 0 0 0 0 0 0 0 0 173 341 674 662 397 623 353 72 132
574 672 528 390 441 470 498 520 526 527 533 469 441 428 448 533 620 506 296 143 87 25 0 0 0 0 0 0 0 0 0 0 0 0 46 25 526 467 394 76 106 85 9
591 761 451 489 517 522 552 563 541 538 471 441 470 523 366 226 243 226 98 25 0 0 0 0 0 0 0 0 0 0 0 0 0 3 21 577 489 583 435 84 1 0 0
664 870 698 610 628 617 576 570 536 483 395 502 509 248 78 51 28 25 0 0 0 0 0 0 0 0 0 0 0 0 0 0 0 0 3 8 0 24 270 479 118 0 0
528 828 781 691 621 625 594 589 494 394 432 439 174 61 0 0 0 0 0 0 0 0 0 0 0 0 0 0 0 0 0 0 0 0 0 0 0 0 0 0 227 228 0
827 800 822 739 667 718 617 517 413 409 392 153 38 2 0 0 0 0 0 0 0 0 0 0 0 0 0 0 0 0 0 0 0 0 0 0 0 0 0 0 0 8 1
627 737 757 737 702 674 575 422 384 323 164 33 0 0 0 0 0 0 0 0 0 0 0 0 0 0 0 0 0 0 0 0 0 0 20 0 0 0 0 0 0 0 0
614 558 397 355 366 384 415 378 195 99 14 0 0 0 8 92 168 120 0 0 0 0 0 0 0 0 0 0 0 0 0 1 0 6 26 0 0 0 0 0 0 0 0
527 313 273 282 251 112 17 68 52 8 0 38 82 132 445 441 544 440 168 4 0 0 0 0 0 0 0 37 26 4 7 0 0 0 18 0 0 0 0 0 0 0 0
153 43 99 116 75 2 26 21 5 0 155 411 650 669 676 508 693 666 545 734 619 90 136 8 26 30 46 28 0 0 0 0 0 0 0 0 0 0 0 0 0 0 0
0 5 20 47 40 16 0 0 0 14 259 466 674 922 945 802 936 845 645 542 586 245 134 78 61 107 44 10 0 0 0 0 0 0 0 0 0 0 0 0 0 0 1
0 5 68 16 64 200 118 335 467 491 634 712 820 818 796 673 497 489 649 546 309 174 139 91 72 42 4 3 1 0 0 0 0 0 0 0 0 0 0 0 0 0 0
0 161 188 162 176 378 573 576 537 424 399 443 507 770 966 942 860 651 425 340 255 45 3 0 0 0 0 0 0 0 0 0 0 0 0 0 0 0 0 0 0 0 0
27 346 410 364 451 494 352 157 51 33 7 2 30 204 461 624 502 360 211 40 0 0 0 0 0 0 0 0 0 0 0 0 0 0 0 0 0 0 0 0 0 0 0
95 356 582 496 555 250 42 3 12 0 19 14 0 15 24 44 21 17 0 0 0 0 0 0 0 0 0 0 0 0 0 0 0 0 0 0 0 0 0 0 0 0 0
51 444 611 665 266 2 0 0 0 0 0 2 0 0 0 0 0 0 0 0 0 0 0 0 0 0 0 0 0 0 0 0 0 0 0 0 0 3 0 0 0 0 0
213 503 704 511 22 0 0 0 0 0 0 0 0 0 0 0 0 0 0 0 0 0 0 0 0 0 0 0 0 0 0 0 0 0 0 2 4 7 4 1 0 0 0
611 756 688 265 209 195 130 35 1 0 0 0 0 0 0 0 0 0 0 0 0 0 0 0 0 0 0 0 0 0 0 0 0 1 2 6 2 0 6 6 5 6 0
794 669 540 451 380 368 90 91 28 0 0 0 0 0 0 0 0 0 0 0 0 0 0 0 0 0 0 0 0 0 0 0 0 0 0 1 6 8 9 4 7 11 13
513 540 622 418 349 135 8 0 1 0 0 0 0 0 0 0 0 0 0 0 0 0 0 0 0 0 0 0 0 0 0 0 0 0 0 0 0 0 0 0 3 9 17
410 205 53 30 22 0 0 0 0 0 2 9 10 1 0 0 0 0 0 0 0 0 0 1 1 4 4 2 1 1 2 5 9 5 11 3 0 1 4 2 6 14 12
2 0 0 1 0 0 0 0 0 0 2 5 0 0 0 0 2 1 0 0 2 4 6 9 20 24 18 16 15 8 8 20 10 21 8 13 0 1 0 11 12 8 18
0 0 0 0 0 0 0 0 0 0 0 0 0 0 0 0 0 0 1 4 8 16 22 22 24 19 27 25 21 10 9 10 9 16 16 7 9 0 8 1 2 8 30

GFSSE_con_mlcape_054.txt.gz
CAPE
78 50 82 482 621 613 503 464 435 377 351 396 417 417 448 484 554 491 468 479 475 449 358 167 62 23 4 0 0 0 0 0 3 83 436 345 339 116 70 64 463 590 812
73 80 137 449 597 565 497 417 378 339 369 385 386 430 474 489 514 509 481 412 398 282 83 44 31 1 0 0 0 0 0 0 0 59 356 368 360 487 129 108 206 770 700
98 94 134 297 491 472 395 366 368 387 440 449 449 488 549 526 497 400 366 327 188 88 36 12 0 0 0 0 0 0 0 0 0 3 333 350 419 630 591 147 40 136 350
169 93 180 181 320 364 362 356 410 514 496 447 398 364 340 468 521 349 224 118 91 14 0 0 0 0 0 0 0 0 0 0 0 0 139 464 322 476 301 472 84 0 3
173 198 218 245 294 380 369 449 465 456 380 350 368 407 488 524 382 188 64 5 0 0 0 0 0 0 0 0 0 0 0 0 0 0 348 326 286 320 157 9 0 0 0
462 306 254 317 300 368 474 469 430 360 337 346 379 323 236 256 159 26 0 0 0 0 0 0 0 0 0 0 0 0 0 0 0 302 208 39 172 404 370 98 16 0 0
351 275 326 276 333 491 486 450 374 358 397 374 218 47 51 43 4 0 0 0 0 0 0 0 0 0 0 0 0 0 0 0 0 4 0 0 0 0 0 60 146 6 0
326 422 412 424 459 470 408 386 336 346 369 213 42 5 0 1 0 0 0 0 0 0 0 0 0 0 0 0 0 0 0 0 0 0 0 0 0 0 0 0 0 0 0
272 463 581 523 510 412 414 370 309 330 228 54 14 0 0 0 0 0 0 0 0 0 0 0 0 0 0 0 0 0 0 0 0 3 0 0 0 0 20 20 0 0 0
300 492 576 565 539 476 387 305 295 208 53 0 0 0 0 0 0 0 0 0 0 0 0 0 0 0 0 0 0 0 0 0 0 9 0 0 0 0 23 48 48 30 0
269 593 546 575 564 461 347 289 178 40 4 0 0 0 0 2 14 92 18 0 0 0 0 0 0 0 0 0 0 1 1 0 0 5 1 0 0 0 0 0 17 34 31
143 325 427 385 440 429 182 143 29 0 1 6 3 0 147 462 169 284 41 0 10 10 1 1 0 0 0 14 37 6 10 0 0 0 0 0 0 0 0 0 0 0 8
202 237 206 232 117 50 10 136 16 0 79 226 405 558 507 571 561 228 460 263 236 141 197 63 23 32 55 45 8 0 0 0 0 0 0 0 0 0 0 0 0 0 5
1 13 83 50 22 0 1 24 0 62 361 512 657 678 590 509 439 226 286 448 417 254 122 107 71 37 37 5 6 1 0 0 0 0 0 0 0 0 0 0 0 0 0
0 0 44 4 27 0 60 210 346 513 400 407 441 584 727 519 298 266 273 334 179 96 1 0 0 0 0 0 0 0 0 0 0 0 0 0 0 0 0 0 0 0 0
0 39 12 79 221 333 470 420 245 69 13 37 161 292 480 519 584 558 353 120 0 0 0 0 0 0 0 0 0 0 0 1 2 0 0 0 0 0 0 0 0 0 0
103 150 107 239 428 452 284 122 0 0 0 0 29 67 92 167 168 40 6 0 0 0 0 0 0 0 0 0 0 0 0 0 0 0 0 0 0 0 0 0 0 0 0
235 305 275 383 473 226 84 2 9 0 0 0 0 0 0 0 0 0 0 0 0 0 0 0 0 0 0 0 0 0 0 0 0 0 0 0 0 0 0 0 0 0 0
328 521 553 432 197 19 0 0 0 0 0 0 0 0 0 0 0 0 0 0 0 0 0 0 0 0 0 0 0 0 0 0 0 0 0 0 0 0 0 0 0 0 0
346 686 574 328 12 0 0 0 0 0 0 0 0 0 0 0 0 0 0 0 0 0 0 0 0 0 0 0 0 0 0 0 0 0 0 3 24 0 0 0 0 0 0
355 810 539 205 19 2 0 0 0 0 0 0 0 0 0 0 0 0 0 0 0 0 0 0 0 0 0 0 0 0 0 0 0 0 0 0 0 0 4 0 0 0 0
896 642 348 295 60 104 227 218 13 0 0 0 0 0 0 0 0 0 0 0 0 0 0 0 0 0 0 0 0 0 0 0 0 0 0 0 0 0 0 0 0 0 2
788 707 507 448 261 370 233 10 0 0 0 0 0 0 0 0 0 0 0 0 0 0 0 0 0 0 0 0 0 0 0 0 0 0 0 0 0 0 0 0 0 0 0
567 417 505 550 451 226 0 0 0 0 0 0 2 0 0 0 0 0 0 0 0 0 0 0 0 0 0 0 0 0 0 0 0 0 0 0 0 0 0 0 0 0 0
660 657 428 44 12 0 0 0 0 16 6 3 3 0 0 0 0 0 0 0 0 0 0 4 13 10 0 2 2 0 0 0 0 2 0 0 0 0 0 0 0 0 0
124 40 7 0 0 0 0 0 0 0 0 0 0 0 0 0 0 0 0 0 0 0 0 0 5 2 0 0 4 1 0 0 0 3 0 0 0 0 0 0 0 0 0

GFSSE_con_mlcape_057.txt.gz
CAPE
17 180 650 655 575 467 389 359 262 261 273 275 252 276 348 376 315 288 306 290 216 110 42 23 0 0 0 0 0 0 0 0 5 247 257 416 448 337 164 327 425 539 766
75 499 723 699 598 475 475 324 278 290 259 256 269 284 306 300 291 283 297 145 59 36 17 0 0 0 0 0 0 0 0 0 0 210 261 124 266 327 149 15 346 190 461
37 465 705 723 603 570 439 362 335 269 266 308 344 357 278 235 249 176 87 68 15 0 0 0 0 0 0 0 0 0 0 0 0 44 309 274 382 579 307 7 0 69 121
31 440 684 663 600 485 414 439 374 345 308 288 289 271 275 260 186 60 31 0 0 0 0 0 0 0 0 0 0 0 0 0 0 0 138 164 222 249 102 14 0 0 0
53 284 637 498 414 430 499 497 397 310 271 273 281 360 328 211 86 3 0 0 0 0 0 0 0 0 0 0 0 0 0 0 181 189 205 209 324 378 188 36 0 0 0
241 263 306 273 379 494 450 402 327 287 225 205 223 255 176 82 11 0 0 0 0 0 0 0 0 0 0 0 0 0 0 0 1 0 12 0 1 27 2 30 0 0 0
96 226 222 289 395 398 349 338 315 230 173 95 45 33 37 12 0 0 0 0 0 0 0 0 0 0 0 0 0 0 0 0 0 0 0 0 0 2 3 0 0 0 0
16 84 139 347 379 306 279 304 265 216 98 5 0 3 3 0 0 0 0 0 0 0 0 0 0 0 0 0 0 0 0 0 0 0 0 0 3 19 43 51 14 0 0
36 106 192 280 305 310 304 279 235 148 23 8 1 0 0 0 0 0 0 0 0 0 0 0 0 0 0 0 0 0 0 0 0 0 0 0 13 46 55 49 68 54 38
118 81 203 382 394 351 319 255 152 36 12 0 0 0 0 0 0 0 0 0 0 0 0 0 0 0 0 0 0 0 0 0 0 0 0 3 11 17 13 0 9 50 53
42 156 246 479 403 310 258 179 64 17 1 0 0 0 0 0 0 0 0 0 0 0 0 0 0 0 0 0 0 0 0 0 0 0 0 0 0 0 0 0 0 0 0
27 133 272 447 351 249 163 47 4 0 0 0 0 0 2 6 30 36 0 0 0 0 0 0 0 0 2 0 0 0 0 0 0 0 0 0 0 0 0 0 0 0 0
31 163 333 430 328 54 17 0 0 0 0 13 9 24 58 219 102 176 70 74 41 30 32 73 22 1 2 0 0 0 0 0 0 0 0 0 0 0 0 0 0 0 0
126 100 144 93 68 8 10 0 0 5 61 235 367 246 196 180 72 9 4 69 33 0 0 0 0 0 0 0 0 0 0 0 0 0 0 0 0 0 0 0 0 0 0
27 57 22 0 0 0 13 83 171 253 318 268 335 417 269 165 94 209 10 0 0 0 0 0 0 0 0 0 0 0 0 0 0 0 0 0 0 0 0 0 0 0 0
12 1 0 0 0 171 171 26 0 1 18 24 111 180 243 136 85 23 0 0 0 0 0 0 0 0 0 0 0 0 0 0 0 0 0 0 0 0 0 0 0 0 0
6 4 0 5 283 184 10 1 0 0 0 0 0 3 9 1 1 0 0 0 0 0 0 0 0 0 0 0 0 0 0 0 0 0 0 0 0 0 0 0 0 0 0
4 9 88 277 254 51 5 0 0 0 0 0 0 0 0 0 0 0 0 0 0 0 0 0 0 0 0 0 0 0 0 0 0 0 0 0 0 0 0 0 0 0 0
93 114 198 229 69 12 0 0 0 0 0 0 0 0 0 0 0 0 0 0 0 0 0 0 0 0 0 0 0 0 0 0 0 0 0 0 0 0 0 0 0 0 0
255 245 218 83 9 0 0 0 0 0 0 0 0 0 0 0 0 0 0 0 0 0 0 0 0 0 0 0 0 0 0 0 0 0 0 0 0 0 0 0 0 0 0
365 263 150 50 0 0 0 0 0 0 0 0 0 0 0 0 0 0 0 0 0 0 0 0 0 0 0 0 0 0 0 0 0 0 0 0 0 0 0 0 0 0 0
420 284 158 24 3 0 0 0 0 0 0 0 0 0 0 0 0 0 0 0 0 0 0 0 0 0 0 0 0 0 0 0 0 0 0 0 0 0 0 0 0 0 0
416 294 145 36 4 0 7 40 0 0 0 0 0 0 0 0 0 0 0 0 0 0 0 0 0 0 0 0 0 0 0 0 0 0 0 0 0 0 0 0 0 0 0
537 355 282 126 31 46 224 22 0 0 0 0 0 0 0 0 0 0 0 0 0 0 0 0 0 0 0 0 0 0 0 0 0 0 0 0 0 0 0 0 0 0 0
438 344 277 70 92 197 12 0 0 0 0 0 0 0 0 0 0 0 0 0 0 0 0 0 0 0 0 0 0 0 0 0 0 0 0 0 0 0 0 0 0 0 0
286 283 306 263 75 0 0 0 0 0 0 0 0 0 0 0 0 0 0 0 0 0 0 0 0 0 0 0 0 0 0 4 0 0 0 0 0 0 0 0 0 0 0

GFSSE_con_mlcape_063.txt.gz
CAPE
667 930 633 442 203 67 51 86 170 265 346 335 307 299 233 170 75 36 0 0 0 0 0 0 0 0 0 0 0 0 0 27 14 0 81 83 10 17 0 7 21 203 369
848 986 631 452 213 73 49 117 267 354 338 298 298 215 121 20 1 1 0 0 0 0 0 0 0 0 0 0 0 0 46 0 0 20 107 119 17 0 0 0 0 0 7
881 901 698 515 300 156 182 240 298 372 324 314 232 133 44 1 7 0 0 0 0 0 0 0 0 0 0 0 0 0 15 164 108 13 18 15 0 0 0 0 0 0 0
881 800 692 538 361 223 285 275 400 373 385 239 184 84 31 37 4 0 0 0 0 0 0 0 0 0 0 0 0 0 0 132 11 2 6 20 10 0 0 0 0 0 0
811 742 768 482 387 331 367 397 530 451 374 242 152 63 54 41 8 0 0 3 0 0 0 0 0 0 0 0 12 0 45 56 15 0 1 2 3 0 0 0 0 0 0
851 832 548 324 578 469 406 447 285 328 317 213 121 69 51 24 11 0 4 1 0 0 0 0 0 0 0 0 0 32 45 0 0 0 0 0 3 19 13 0 0 0 0
814 735 414 259 434 538 408 283 291 252 272 181 124 74 38 16 3 0 0 0 0 0 0 0 0 0 0 0 0 0 0 0 0 0 0 0 5 20 4 0 0 4 23
355 233 122 84 125 176 221 244 194 207 192 135 104 52 9 11 0 0 0 0 0 0 0 0 0 0 0 0 0 0 0 0 0 0 0 6 21 26 10 0 0 0 0
41 0 5 28 101 180 250 192 131 147 123 99 51 10 2 0 0 0 0 0 0 0 0 0 0 0 0 0 0 0 0 0 0 0 0 0 6 0 0 0 4 0 0
7 2 30 53 56 164 170 119 93 75 64 72 1 0 0 0 0 0 0 0 0 0 0 0 0 0 0 0 0 0 0 0 0 0 0 0 0 0 0 0 0 0 0
39 27 0 34 129 216 219 150 66 45 40 9 2 0 0 0 1 0 0 0 0 0 0 0 0 0 0 0 0 0 0 0 0 0 0 0 0 2 2 0 0 0 0
27 0 0 55 218 252 199 100 39 25 0 2 3 0 0 0 3 0 0 5 4 0 0 0 0 0 0 0 0 0 0 0 0 0 0 0 0 0 5 2 0 0 0
5 3 21 72 203 211 107 46 8 2 0 1 0 0 3 15 18 29 33 26 12 0 0 0 0 0 0 0 0 0 0 0 0 0 0 0 0 0 10 12 0 0 0
18 1 29 66 213 162 41 3 0 0 0 0 0 2 87 28 28 0 0 0 0 0 0 0 0 0 0 0 0 0 0 0 0 0 0 0 0 0 2 12 0 0 0
0 32 86 83 197 61 0 0 0 0 1 83 155 100 49 1 0 0 0 0 0 0 0 0 0 0 0 0 0 0 0 0 0 0 0 0 0 0 0 0 0 0 0
11 51 103 193 45 0 0 0 0 39 153 191 108 73 4 0 0 0 0 0 0 0 0 0 0 0 0 0 0 0 0 0 0 0 0 0 0 0 0 0 0 0 0
18 83 128 101 3 1 0 5 29 113 176 145 49 1 0 0 0 0 0 0 0 0 0 0 0 0 0 0 0 0 0 0 0 0 0 0 0 0 0 0 0 0 0
35 42 67 144 9 5 0 1 25 66 43 4 0 0 0 0 0 0 0 0 0 0 0 0 0 0 0 0 0 0 0 0 0 0 0 0 0 0 0 0 0 0 0
62 17 72 120 4 0 0 0 1 0 0 0 0 0 0 0 0 0 0 0 0 0 0 0 0 0 0 0 0 0 0 0 0 0 0 0 0 0 0 0 0 0 1
44 0 9 2 0 0 0 0 0 0 0 0 0 0 0 0 0 0 0 0 0 0 0 0 0 0 0 0 0 0 0 0 0 0 0 0 0 0 0 0 0 0 0
7 12 24 0 0 0 0 0 0 0 0 0 0 0 0 0 0 0 0 0 0 0 0 0 0 0 0 0 0 0 0 0 0 0 0 0 0 0 0 0 0 0 0
22 0 21 50 10 0 0 0 0 0 0 0 0 0 0 0 0 0 0 0 0 0 0 0 0 0 0 0 0 0 0 0 0 0 0 0 0 0 0 0 0 0 0
22 1 0 42 26 0 0 0 0 0 0 0 0 0 0 0 0 0 0 0 0 0 0 0 0 0 0 0 0 0 0 0 0 0 0 0 0 0 0 0 0 0 0
25 39 12 30 4 0 0 0 0 0 0 0 0 0 0 0 0 0 0 0 0 0 0 0 0 0 0 0 0 0 0 0 0 0 0 0 0 0 0 0 0 0 0
2 11 1 24 9 0 0 0 0 0 0 0 0 0 0 0 0 0 0 0 0 0 0 0 0 0 0 0 0 0 0 0 0 0 0 0 0 0 0 0 0 0 0
4 13 13 23 81 2 0 0 0 0 0 0 0 0 0 0 0 0 0 0 0 0 0 0 0 0 0 0 0 0 0 0 0 0 0 0 0 0 0 0 0 0 0

GFSSE_con_mlcape_066.txt.gz
CAPE
722 761 503 394 449 348 250 186 114 95 133 191 227 195 180 118 61 0 0 0 0 0 0 0 0 0 0 22 113 0 0 0 11 46 26 2 0 0 0 0 0 0 4
940 801 597 391 289 232 233 287 311 294 268 284 245 180 110 65 4 0 0 0 0 0 0 0 0 0 0 0 81 0 0 11 15 8 2 0 0 0 0 0 0 0 0
1081 869 626 361 297 282 339 417 409 371 311 238 173 90 58 20 0 0 0 0 0 0 0 0 0 46 62 0 0 97 21 8 0 0 0 0 0 0 0 0 0 0 0
1043 811 598 426 294 259 341 407 412 438 225 226 120 64 48 6 0 0 0 0 0 0 0 0 0 45 9 0 0 125 0 0 0 0 0 0 0 0 0 0 0 0 0
1033 794 624 378 423 414 507 504 476 341 179 120 65 70 41 3 0 0 0 0 0 0 0 0 0 24 0 0 61 56 0 0 0 0 0 0 0 0 0 0 0 0 0
835 848 572 370 526 645 641 583 542 203 158 93 84 82 31 12 7 8 15 0 0 0 0 0 0 0 0 0 45 0 0 0 0 0 0 0 0 0 0 0 0 0 0
912 642 482 276 529 699 612 497 426 189 208 102 127 84 21 13 24 7 2 0 0 0 0 0 0 0 0 0 0 0 0 0 0 0 0 0 0 0 0 0 0 0 0
647 461 358 122 178 279 156 222 288 331 134 105 142 59 36 35 23 3 0 0 0 0 0 0 0 0 0 0 0 0 0 0 0 0 0 0 0 0 0 0 0 0 0
199 229 96 111 100 52 145 267 407 287 60 127 104 40 26 13 7 0 0 0 0 0 0 0 0 0 0 0 0 0 0 0 0 0 0 0 0 0 0 0 0 0 0
59 10 7 30 30 64 155 290 278 128 110 90 27 17 3 17 8 0 0 0 0 0 0 0 0 0 0 0 0 0 0 0 0 0 0 0 0 5 2 0 0 0 0
20 9 23 27 30 107 182 186 124 64 84 36 24 10 7 5 1 2 2 0 0 0 0 0 0 0 0 0 0 0 0 0 0 0 0 0 0 7 16 8 0 0 0
1 2 0 24 2 158 177 120 75 68 31 15 12 9 7 4 0 0 1 5 3 0 0 0 0 0 0 0 0 0 0 0 0 0 0 0 0 0 3 1 0 0 0
0 0 13 16 58 166 184 89 35 16 20 5 1 0 1 7 1 9 4 0 0 0 0 0 0 0 0 0 0 0 0 0 0 0 0 0 0 0 19 15 0 0 0
0 0 0 8 34 202 98 26 6 0 0 0 0 10 53 59 24 3 0 0 0 0 0 0 0 0 0 0 0 0 0 0 0 0 0 0 0 0 19 22 5 0 0
3 0 0 0 31 150 22 0 0 0 0 3 9 29 30 7 0 0 0 0 0 0 0 0 0 0 0 0 0 0 0 0 0 0 0 0 0 0 0 19 17 7 3
0 0 0 35 86 73 3 0 0 0 4 47 85 66 4 0 0 0 0 0 0 0 0 0 0 0 0 0 0 0 0 0 0 0 0 0 0 0 0 4 4 4 2
0 17 13 29 29 4 0 0 0 6 159 185 119 32 0 0 0 0 0 0 0 0 0 0 0 0 0 0 0 0 0 0 0 0 0 0 0 0 0 0 0 0 0
0 13 43 73 66 2 0 0 8 83 120 65 12 0 0 0 0 0 0 0 0 0 0 0 0 0 0 0 0 0 0 0 0 0 0 0 0 0 0 0 0 0 0
1 23 46 68 22 0 0 0 5 26 10 0 0 0 0 0 0 0 0 0 0 0 0 0 0 0 0 0 0 0 0 0 0 0 0 0 0 0 0 0 0 0 0
0 0 0 7 2 0 0 0 0 0 0 0 0 0 0 0 0 0 0 0 0 0 0 0 0 0 0 0 0 0 0 0 0 0 0 0 0 0 0 0 0 0 0
5 6 15 39 3 0 0 0 0 0 0 0 0 0 0 0 0 0 0 0 0 0 0 0 0 0 0 0 0 0 0 0 0 0 0 0 0 0 0 0 0 0 0
41 44 4 0 1 0 0 0 0 0 0 0 0 0 0 0 0 0 0 0 0 0 0 0 0 0 0 0 0 0 0 0 0 0 0 0 0 0 0 0 0 0 0
51 86 72 17 0 0 0 0 0 0 0 0 0 0 0 0 0 0 0 0 0 0 0 0 0 0 0 0 0 0 0 0 0 0 0 0 0 0 0 0 0 0 0
36 31 37 15 0 0 0 0 0 0 0 0 0 0 0 0 0 0 0 0 0 0 0 0 0 0 0 0 0 0 0 0 0 0 0 0 0 0 0 0 0 0 0
18 4 0 0 0 0 0 0 0 0 0 0 0 0 0 0 0 0 0 0 0 0 0 0 0 0 0 0 0 0 0 0 0 0 0 0 0 0 0 0 0 0 0
9 1 0 0 0 0 0 0 0 0 0 0 0 0 0 0 0 0 0 0 0 0 0 0 0 0 0 0 0 0 0 0 0 0 0 0 0 0 0 0 0 0 0

GFSSE_con_mlcape_069.txt.gz
CAPE
776 526 327 289 231 344 427 419 378 269 218 186 163 153 138 83 0 0 0 0 0 0 0 0 0 224 272 214 161 115 117 26 12 0 0 0 0 0 0 0 0 0 0
841 464 463 377 177 117 149 150 160 184 244 241 205 139 91 6 0 0 0 0 0 0 0 0 0 137 280 109 0 39 0 0 0 0 0 0 0 0 0 0 0 0 0
858 582 575 493 373 220 111 99 185 334 347 269 166 115 56 0 0 0 0 0 0 0 1 111 102 36 158 97 60 0 0 0 0 0 0 0 0 0 0 0 0 0 0
968 650 680 542 476 432 381 368 391 389 282 180 138 104 32 1 0 0 0 0 0 0 45 210 227 87 108 176 122 0 0 0 0 0 0 0 0 0 0 0 0 0 0
1010 702 628 565 638 716 642 553 530 411 251 171 125 77 21 6 0 0 0 0 0 0 108 204 92 128 164 165 29 0 0 0 0 0 0 0 0 0 0 0 0 0 0
1002 754 610 577 670 700 669 628 434 282 190 161 132 54 26 26 8 5 3 0 0 0 19 100 1 5 134 65 1 0 0 0 0 0 0 0 0 0 0 0 0 0 0
1018 795 571 392 598 746 722 424 180 133 156 140 81 61 61 65 49 26 12 0 0 0 0 0 4 16 56 3 0 0 0 0 0 0 0 0 0 0 0 0 0 0 0
949 733 498 218 371 566 347 190 142 146 132 115 70 65 60 51 28 13 6 0 0 0 0 0 0 0 0 0 0 0 0 0 0 0 0 0 0 0 1 0 0 0 0
626 403 225 199 184 71 179 205 121 108 163 108 27 32 31 23 4 0 0 0 0 0 0 0 0 0 0 0 0 0 0 0 0 0 0 0 0 0 0 0 0 0 0
291 193 138 83 27 12 42 211 201 158 95 2 17 10 7 1 0 0 0 0 0 0 0 0 0 0 0 0 0 0 0 0 0 0 0 0 0 0 0 0 0 0 0
130 31 2 1 0 11 34 68 139 110 9 11 18 14 10 12 10 7 8 2 0 0 0 0 0 0 0 0 0 0 0 0 0 0 0 0 0 4 12 0 0 0 0
41 4 2 0 1 0 1 71 121 69 13 19 29 8 15 28 23 14 2 1 0 0 0 0 0 0 0 0 0 0 0 0 0 0 0 0 0 0 5 1 0 0 0
1 1 2 3 0 1 70 76 57 34 12 17 15 34 33 15 29 41 50 0 0 0 0 0 0 0 0 0 0 0 0 0 0 0 0 0 0 0 20 18 0 0 0
5 1 0 0 6 24 93 62 22 18 16 28 13 37 41 48 55 14 0 0 0 0 0 0 0 0 0 0 0 0 0 0 0 0 0 0 0 0 25 22 3 0 0
0 0 10 3 23 84 36 5 0 0 0 0 30 165 174 67 6 0 0 0 0 0 0 0 0 0 0 0 0 0 0 0 0 0 0 0 0 0 0 24 13 2 1
0 0 0 0 10 88 15 0 0 0 8 22 89 193 74 0 0 0 0 0 0 0 0 0 0 0 0 0 0 0 0 0 0 0 0 0 0 0 0 1 4 8 2
0 0 0 0 59 121 21 0 0 5 14 37 96 95 0 0 0 0 0 0 0 0 0 0 0 0 0 0 0 0 0 0 0 0 0 0 0 0 0 0 0 0 0
0 0 0 15 95 132 0 0 0 27 152 144 85 23 0 0 0 0 0 0 0 0 0 0 0 0 0 0 0 0 0 0 0 0 0 0 0 0 0 0 0 0 0
0 2 7 104 97 85 0 0 3 82 116 48 15 4 0 0 0 0 0 0 0 0 0 0 0 0 0 0 0 0 0 0 0 0 0 0 0 0 0 0 0 0 0
1 15 37 86 107 6 0 0 15 41 13 0 0 0 0 0 0 0 0 0 0 0 0 0 0 0 0 0 0 0 0 0 0 0 0 0 0 0 0 0 0 0 0
0 0 4 35 35 0 0 0 1 24 3 0 0 0 0 0 0 0 0 0 0 0 0 0 0 0 0 0 0 0 0 0 0 0 0 0 0 0 0 0 0 0 0
2 1 1 19 18 1 0 0 0 0 1 0 0 0 0 0 0 0 0 0 0 0 0 0 0 0 0 0 0 0 0 0 0 0 0 0 0 0 0 0 0 0 0
120 68 74 83 61 42 0 0 0 0 0 0 0 0 0 0 0 0 0 0 0 0 0 0 0 0 0 0 0 0 0 0 0 0 0 0 0 0 0 0 0 0 0
106 54 110 47 19 7 0 0 0 0 0 0 0 0 0 0 0 0 0 0 0 0 0 0 0 0 0 0 0 0 0 0 0 0 0 0 0 0 0 1 0 0 0
66 29 26 33 16 0 0 0 0 0 0 0 0 0 0 0 0 0 0 0 0 0 0 0 0 0 0 0 0 0 0 0 0 0 0 0 1 4 5 6 0 0 0
2 26 13 16 16 0 0 0 0 0 0 0 0 0 0 0 0 0 0 0 0 0 0 0 0 0 0 0 0 0 0 0 0 0 0 0 0 0 7 8 0 0 0

GFSSE_con_mlcape_072.txt.gz
CAPE
964 392 555 795 897 911 833 645 517 376 339 358 347 203 86 10 0 0 0 0 0 0 51 285 347 290 218 206 154 53 0 0 0 0 0 0 0 0 0 0 0 0 0
1073 374 586 801 861 871 734 653 520 423 416 377 277 121 4 0 0 0 0 0 0 0 134 349 340 266 145 113 91 0 0 0 0 0 0 0 0 0 0 0 0 0 0
1028 354 546 761 835 795 700 568 484 446 410 309 122 5 0 0 0 0 0 0 0 0 63 205 370 278 223 165 36 0 0 0 0 0 0 0 0 0 0 0 0 0 0
973 405 389 651 748 688 577 534 536 468 293 148 31 0 0 0 0 0 0 0 20 220 267 221 317 318 211 80 0 0 0 0 0 0 4 11 0 0 0 0 0 0 0
982 425 474 489 552 551 604 650 537 296 167 113 12 0 0 8 6 0 0 0 115 331 386 383 330 335 174 6 0 0 0 0 0 3 8 14 10 0 0 0 0 0 0
1026 703 594 528 551 601 687 575 321 147 127 76 13 11 31 22 8 7 4 27 204 337 284 382 345 256 64 0 0 0 0 0 0 2 8 4 10 0 0 0 0 0 0
1020 862 614 517 513 642 642 475 271 132 123 52 28 54 59 55 38 13 5 17 51 181 138 181 266 159 9 0 0 0 0 0 2 3 10 7 3 2 0 0 0 0 0
872 828 627 450 540 720 673 403 145 104 75 47 58 96 102 78 53 13 4 2 0 0 19 44 114 27 0 0 0 0 0 0 0 2 3 5 0 6 0 0 0 0 0
627 683 633 447 516 413 369 314 177 113 69 58 98 99 58 42 9 2 0 0 0 0 0 2 1 0 0 0 0 0 0 0 2 1 0 1 0 7 0 0 0 0 0
364 317 145 69 64 27 127 194 195 130 87 55 45 18 8 0 0 2 0 0 0 0 0 0 0 0 0 0 0 0 0 0 0 0 0 0 6 17 10 0 0 0 0
201 88 2 1 1 20 48 127 144 112 64 52 1 0 0 1 1 4 9 7 4 0 0 0 0 0 0 0 0 0 0 0 0 0 0 0 0 21 14 0 0 0 0
70 2 1 0 0 7 52 84 167 104 37 31 13 6 1 9 10 4 9 0 0 0 0 0 0 0 0 0 0 0 0 0 0 0 0 0 0 1 13 3 0 0 0
4 3 3 3 0 0 0 0 35 57 105 60 37 12 47 60 24 24 0 0 0 0 0 0 0 0 0 0 0 0 0 0 0 0 0 0 0 0 13 12 0 0 0
4 6 2 0 0 0 0 0 2 75 121 91 92 97 124 109 164 229 60 0 0 0 0 0 0 0 0 0 0 0 0 0 0 0 0 0 0 0 28 18 0 0 0
1 1 0 0 4 34 66 103 79 82 95 117 207 221 237 312 330 207 0 0 0 0 0 0 0 0 0 0 0 0 0 0 0 0 0 0 0 0 0 26 7 0 0
0 0 0 0 0 0 0 75 91 79 92 170 295 433 521 444 248 0 0 0 0 0 0 0 0 0 0 0 0 0 0 0 0 0 0 0 0 0 0 0 2 8 0
3 0 4 15 45 101 116 86 54 79 92 225 411 516 220 78 0 0 0 0 0 0 0 0 0 0 0 0 0 0 0 0 0 0 0 0 0 0 0 0 0 0 0
12 32 91 25 187 221 124 40 29 91 262 409 490 525 206 52 2 0 0 0 0 0 0 0 0 0 0 0 0 0 0 0 0 0 0 0 0 0 0 0 0 0 0
0 1 0 54 293 288 240 31 43 225 434 491 497 519 323 55 0 0 0 0 0 0 0 0 0 0 0 0 0 0 0 0 0 0 0 0 0 0 0 0 0 0 0
0 0 3 173 233 364 244 115 180 331 499 415 464 398 110 5 0 0 0 0 0 0 0 0 0 0 0 0 0 0 0 0 0 0 0 0 0 0 0 0 0 0 0
5 8 132 335 472 422 177 10 48 150 281 250 251 145 2 0 0 0 0 0 0 0 0 0 0 0 0 0 0 0 0 0 0 0 0 0 0 0 0 0 0 0 0
70 116 189 310 439 423 76 27 186 351 177 281 210 1 0 0 0 0 0 0 0 0 0 0 0 0 0 0 0 0 0 0 0 0 0 0 0 0 0 0 0 0 0
72 85 141 277 354 402 288 68 229 314 126 105 35 0 0 0 0 0 0 0 0 0 0 0 0 0 0 0 0 0 0 0 0 0 0 0 0 0 0 0 0 0 0
206 125 139 213 362 484 433 205 79 90 141 70 2 0 0 0 0 0 0 0 0 0 0 0 0 0 0 0 0 0 0 0 0 0 0 0 1 0 0 2 1 1 0
246 315 406 403 499 534 483 339 236 219 173 1 0 0 0 0 0 0 0 0 0 0 0 0 0 0 0 0 0 0 0 0 0 0 0 0 0 0 0 0 1 1 2
401 480 400 383 379 384 323 335 287 247 23 0 0 0 0 0 0 0 0 0 0 0 0 0 0 0 0 0 0 0 0 0 0 0 0 0 0 0 0 0 1 3 4

GFSSE_con_mlcape_075.txt.gz
CAPE
1012 642 959 1264 1138 961 766 602 575 457 450 369 182 58 15 0 0 0 0 0 85 170 311 402 340 288 258 160 0 0 0 0 0 0 0 0 0 0 0 0 0 0 0
920 711 1022 1301 1188 1025 803 713 592 527 454 299 122 20 0 0 0 0 0 0 113 266 382 368 297 247 218 49 0 0 0 0 0 0 0 0 0 0 0 0 0 0 1
892 747 1137 1293 1189 1079 920 786 676 595 557 324 63 0 0 0 0 0 0 0 172 438 452 376 266 247 80 0 0 0 0 0 0 6 13 1 0 0 0 0 0 1 0
913 772 1150 1229 1199 1118 965 835 699 593 428 188 3 0 0 0 0 0 0 7 137 295 532 420 326 205 31 0 0 0 0 0 0 4 17 5 0 0 0 0 0 0 0
940 743 1118 1160 1102 1037 929 758 637 474 257 24 0 6 7 0 0 16 37 209 389 338 429 462 364 205 17 0 0 0 0 0 0 2 1 3 1 0 0 0 0 0 0
859 682 885 993 999 966 814 647 486 320 56 9 17 31 10 6 45 22 119 373 430 564 480 548 379 71 0 0 0 0 0 0 1 28 16 1 3 0 0 0 0 0 0
705 739 739 900 920 770 664 531 338 138 15 15 40 24 43 60 49 66 138 302 314 546 593 464 221 0 0 0 0 0 0 0 10 17 22 0 2 1 0 0 0 0 0
600 695 570 726 720 709 630 413 189 44 36 60 69 72 68 63 64 78 77 114 175 328 396 265 76 0 0 0 0 0 0 0 14 2 41 0 0 3 0 0 0 0 0
515 153 518 618 579 708 438 218 110 53 74 92 69 59 59 55 63 50 14 33 64 99 161 98 2 0 0 0 0 0 0 0 2 2 4 0 0 7 0 0 0 0 0
39 195 290 202 203 296 70 70 146 120 144 146 87 56 20 40 25 9 0 10 12 54 71 7 0 0 0 0 0 0 0 0 0 1 0 0 13 22 3 0 0 0 0
41 72 71 10 10 0 0 174 181 191 179 95 57 24 1 12 6 63 56 27 10 0 0 0 0 0 0 0 0 0 0 0 0 0 0 0 0 19 10 0 0 0 0
111 11 3 2 0 0 18 82 143 104 84 33 24 7 5 12 61 74 63 16 0 0 0 0 0 0 0 0 0 0 0 0 0 0 0 0 0 1 16 1 0 0 0
9 4 4 0 0 0 16 3 79 86 51 28 32 47 52 105 86 85 30 0 0 0 0 0 0 0 0 0 0 0 0 0 0 0 0 0 0 0 16 2 0 0 0
3 3 3 1 1 4 9 0 8 53 59 58 77 141 251 178 201 103 43 1 0 0 0 0 0 0 0 0 0 0 0 0 0 0 0 0 0 0 38 10 0 0 0
3 5 7 5 4 0 0 0 0 0 35 88 167 227 256 239 312 270 188 21 0 0 0 0 0 0 0 0 0 0 0 0 0 0 0 0 0 0 0 13 4 1 0
1 0 0 10 4 4 11 7 8 92 158 189 237 314 391 338 308 307 132 25 0 0 0 0 0 0 0 0 0 0 0 0 0 0 0 0 0 0 0 0 0 1 0
0 0 0 0 0 0 0 0 0 90 180 191 278 526 514 397 393 215 86 19 3 0 0 0 0 0 0 0 0 0 0 0 0 0 0 0 0 0 0 0 0 0 0
1 0 0 0 0 0 0 3 12 88 171 274 402 468 539 452 341 284 141 17 0 0 0 0 0 0 0 0 0 0 0 0 0 0 0 0 0 0 0 0 0 0 0
9 2 0 0 0 13 86 70 65 147 246 276 361 360 476 393 319 196 80 0 0 0 0 0 0 0 0 0 0 0 0 0 0 0 0 0 0 0 0 0 0 0 0
36 14 19 27 38 103 197 109 108 173 258 366 469 452 469 392 251 136 11 0 0 0 0 0 0 0 0 0 0 0 0 0 0 0 0 0 0 0 0 0 0 0 0
5 2 1 52 62 215 314 157 62 85 326 449 464 556 510 330 203 106 1 0 0 0 0 0 0 0 0 0 0 0 0 0 0 0 0 0 0 0 0 0 0 0 0
0 0 0 89 280 346 226 53 3 79 365 494 459 414 229 3 1 68 1 0 0 0 0 0 0 0 0 0 0 0 0 0 0 0 0 0 0 0 0 0 0 0 0
6 0 38 196 367 495 239 16 43 173 272 351 302 273 93 6 25 14 0 0 0 0 0 0 0 0 0 0 0 0 0 0 0 0 0 0 0 0 0 0 0 0 0
128 152 230 353 451 555 557 102 126 317 320 295 325 147 0 0 0 0 0 0 0 0 0 0 0 0 0 0 0 0 0 0 0 0 0 0 0 2 2 0 0 0 0
197 193 225 344 397 483 565 533 234 257 211 277 210 17 0 0 0 0 0 0 0 0 0 0 0 0 0 0 0 0 0 0 0 0 0 0 0 0 0 0 0 0 0
326 371 380 343 384 498 712 649 511 374 328 305 98 0 0 0 0 0 0 0 0 0 0 0 0 0 0 0 0 0 0 0 0 0 0 0 0 0 0 0 0 0 0

GFSSE_con_mlcape_078.txt.gz
CAPE
800 1115 1384 1305 911 730 578 476 344 284 270 98 20 8 0 0 0 0 71 182 284 306 318 234 204 0 0 0 0 0 0 0 0 0 0 0 0 0 0 0 0 2 2
675 1235 1399 1306 1050 842 717 564 375 415 331 125 47 8 0 0 0 0 73 190 415 363 298 237 157 0 0 0 0 0 0 0 0 0 0 0 0 0 0 0 2 1 3
991 1251 1489 1358 1099 939 771 642 548 646 423 142 10 0 0 0 0 0 133 321 353 382 269 208 119 0 0 0 0 0 0 0 20 33 0 0 0 1 0 0 0 3 1
988 1382 1594 1383 1164 1069 901 789 770 695 332 61 0 0 0 0 6 86 238 402 461 381 237 235 92 0 0 0 0 0 0 0 3 8 3 0 0 0 0 0 0 0 0
814 1403 1604 1229 1068 966 936 799 794 645 206 8 1 0 1 16 77 114 185 327 557 500 336 271 35 0 0 0 0 0 0 2 8 2 0 0 0 0 0 0 0 0 0
805 1343 1181 1049 1026 841 724 708 683 352 57 5 5 2 18 70 86 207 395 403 509 576 446 244 2 0 0 0 0 0 0 4 17 0 0 0 0 0 0 0 0 0 0
746 1035 933 892 947 794 787 636 444 176 57 46 22 21 76 84 179 403 412 578 601 655 446 127 0 0 0 0 0 0 0 0 6 3 0 0 0 0 0 0 0 0 0
606 816 813 853 814 814 730 548 323 110 74 61 38 69 64 59 160 246 255 567 692 493 293 50 0 0 0 0 0 0 0 0 0 6 0 0 0 0 0 0 0 0 0
31 597 797 647 615 538 478 339 116 71 69 61 59 42 38 35 80 120 171 426 471 309 156 17 0 0 0 0 0 0 0 0 0 0 0 0 3 4 0 0 0 0 0
0 0 62 311 365 283 206 99 77 88 85 65 53 22 23 20 35 84 119 181 217 194 98 4 0 0 0 0 0 0 0 0 0 0 0 0 10 10 2 0 0 0 0
0 1 0 7 10 37 54 58 84 87 82 51 29 11 4 5 46 67 81 115 137 137 28 0 0 0 0 0 0 0 0 0 0 0 0 0 6 21 8 0 0 0 0
23 21 1 0 3 4 10 30 40 73 53 36 15 17 13 95 96 65 38 25 30 9 0 0 0 0 0 0 0 0 0 0 0 0 0 0 0 2 11 1 0 0 0
1 1 2 1 0 0 0 0 9 3 17 11 2 29 79 109 128 51 10 4 0 0 0 0 0 0 0 0 0 0 0 0 0 0 0 0 0 0 12 0 0 0 0
2 2 3 0 0 0 0 0 0 0 0 0 25 29 113 141 122 73 64 1 0 0 0 0 0 0 0 0 0 0 0 0 0 0 0 0 0 0 10 1 0 0 0
4 5 4 4 2 0 0 0 15 31 8 62 81 146 188 176 100 137 105 25 1 0 0 0 0 0 0 0 0 0 0 0 0 0 0 0 0 0 5 4 3 1 0
2 1 3 3 3 0 2 24 33 17 76 133 152 193 224 215 214 258 142 75 0 0 0 0 0 0 0 0 0 0 0 0 0 0 0 0 0 0 0 0 0 0 0
1 1 2 0 0 0 4 3 12 41 57 55 133 195 250 295 267 242 113 22 0 1 0 0 0 0 0 0 0 0 0 0 0 0 0 0 0 0 0 0 0 0 0
1 0 0 0 0 0 0 0 0 0 36 92 30 115 77 190 317 238 93 17 29 0 0 0 0 0 0 0 0 0 0 0 0 0 0 0 0 0 0 0 0 0 0
1 0 0 0 0 0 0 0 0 0 51 39 83 84 113 238 343 280 187 90 0 0 0 0 0 0 0 0 0 0 0 0 0 0 0 0 0 0 0 0 0 0 0
0 0 0 0 0 0 0 0 2 79 76 80 94 166 219 349 387 190 128 0 0 0 0 0 0 0 0 0 0 0 0 0 0 0 0 0 0 0 0 0 0 0 0
0 0 0 0 0 0 0 0 47 20 84 27 2 107 241 358 351 233 47 0 0 0 0 0 0 0 0 0 0 0 0 0 0 0 0 0 0 0 0 0 0 0 0
0 0 0 0 0 0 5 72 5 48 53 29 105 222 285 328 308 205 40 0 0 0 0 0 0 0 0 0 0 0 0 0 0 0 0 0 0 0 0 0 0 0 0
4 5 3 5 0 43 44 162 3 84 84 130 182 283 298 134 60 74 79 1 0 0 0 0 0 0 0 0 0 0 0 0 0 0 0 0 0 0 0 0 0 0 0
8 11 6 2 124 269 266 55 0 10 108 181 220 260 218 79 8 49 51 0 0 0 0 0 0 0 0 0 0 0 0 0 0 0 0 0 0 0 0 0 0 0 0
0 0 0 24 189 314 378 304 6 128 148 238 283 267 63 0 0 3 0 0 0 0 0 0 0 0 0 0 0 0 0 0 0 0 0 0 0 0 0 0 0 0 0
169 64 59 235 354 396 467 384 220 297 230 287 292 173 29 0 0 0 0 0 0 0 0 0 0 0 0 0 0 0 0 0 0 0 0 0 0 0 0 0 0 0 0

GFSSE_con_mlcape_081.txt.gz
CAPE
719 1520 1521 1175 967 647 394 389 283 273 216 158 80 0 0 0 94 236 221 163 215 162 8 0 0 0 0 0 0 0 0 0 0 0 0 0 3 8 6 1 0 1 2
792 1701 1571 1088 952 659 482 471 396 361 357 229 69 0 0 0 44 278 312 243 209 144 0 0 0 0 0 0 0 0 0 0 0 0 0 0 2 0 1 4 1 3 7
453 26 1585 1266 1005 853 739 679 565 488 445 268 58 1 0 0 48 296 341 295 280 136 0 0 0 0 0 0 0 0 1 11 0 0 0 0 0 0 0 0 1 1 6
371 76 625 1323 1186 1104 934 849 797 693 453 206 12 0 0 1 129 368 271 304 218 127 0 0 0 0 0 0 0 0 0 0 0 0 0 0 0 0 0 0 0 2 8
86 40 0 971 950 1101 980 855 701 472 240 43 0 0 3 101 361 364 420 342 191 133 0 0 0 0 0 0 0 0 0 0 0 0 0 0 0 0 0 0 0 1 6
0 0 0 614 691 947 935 868 579 306 138 20 0 36 86 192 352 450 565 433 348 217 31 0 0 0 0 0 0 0 0 0 0 0 0 0 0 0 0 0 0 0 2
12 11 26 638 649 935 907 775 482 249 74 7 32 63 116 275 344 379 590 568 388 207 0 0 0 0 0 0 0 0 0 0 0 0 0 0 0 0 0 0 0 1 2
3 247 258 390 637 865 839 587 321 162 47 46 80 116 330 348 411 440 589 566 343 71 0 0 0 0 0 0 0 0 0 0 0 0 0 0 0 0 0 0 0 0 2
0 0 0 557 416 595 491 338 210 153 76 72 5 44 175 319 475 639 700 501 194 22 0 0 0 0 0 0 0 0 0 0 0 0 0 0 0 0 0 0 0 0 0
0 44 0 2 316 281 218 173 109 60 25 5 0 11 94 100 329 609 581 314 148 38 0 0 0 0 0 0 0 0 0 0 0 0 0 0 3 8 1 0 0 0 2
0 0 0 1 53 123 97 110 32 2 0 0 0 0 8 21 88 233 322 196 145 67 0 0 0 0 0 0 0 0 0 0 0 0 0 0 7 6 1 0 0 0 1
0 0 14 85 65 54 41 6 0 0 0 0 0 0 1 18 54 120 155 149 123 34 0 0 0 0 0 0 0 0 0 0 0 0 0 0 0 6 4 0 0 0 0
2 3 1 8 32 11 27 0 0 0 0 0 0 12 22 30 55 47 78 78 43 4 0 0 0 0 0 0 0 0 0 0 0 0 0 0 0 12 6 3 0 0 0
0 1 1 1 0 0 0 0 0 0 0 0 0 31 61 16 21 8 5 7 1 0 0 0 0 0 0 0 0 0 0 0 0 0 0 0 0 6 5 4 2 0 0
2 2 1 0 0 0 0 0 0 0 0 0 2 103 88 40 51 36 4 2 0 0 0 0 0 0 0 0 0 0 0 0 0 0 0 0 0 3 4 5 5 5 1
3 3 1 1 0 0 0 0 0 0 0 31 61 104 102 84 111 96 23 14 1 0 0 0 0 0 0 0 0 0 0 0 0 0 0 0 0 0 0 0 0 0 0
2 3 0 0 0 0 0 0 0 1 78 63 70 62 106 187 165 179 81 51 17 0 0 0 0 0 0 0 0 0 0 0 0 0 0 0 0 0 0 0 0 0 0
2 2 1 1 0 0 0 0 0 24 18 9 8 13 64 245 191 189 107 2 0 0 0 0 0 0 0 0 0 0 0 0 0 0 0 0 0 0 0 0 0 0 0
0 0 0 0 0 0 0 5 16 0 0 0 13 55 23 79 205 147 60 0 0 0 0 0 0 0 0 0 0 0 0 0 0 0 0 0 0 0 0 0 0 0 0
0 0 0 0 0 0 0 0 0 0 0 0 4 30 0 0 42 144 63 4 0 0 0 0 0 0 0 0 0 0 0 0 0 0 0 0 0 0 0 0 0 0 0
1 0 0 0 0 0 0 0 0 0 0 0 0 4 10 19 54 91 96 0 0 0 0 0 0 0 0 0 0 0 0 0 0 0 0 0 0 0 0 0 0 0 0
0 0 0 0 0 0 0 0 0 0 1 11 0 0 0 31 72 72 10 0 0 0 0 0 0 0 0 0 0 0 0 0 0 0 0 0 0 0 0 0 0 0 0
0 0 0 0 0 0 0 0 0 0 5 0 0 0 2 86 132 119 4 0 0 0 0 0 0 0 0 0 0 0 0 0 0 0 0 0 0 0 0 0 0 0 0
0 0 0 0 0 0 0 0 0 0 0 0 0 0 55 111 78 58 39 0 0 0 0 0 0 0 0 0 0 0 0 0 0 0 0 0 0 0 0 0 0 0 0
0 0 0 0 0 0 0 0 0 0 0 18 41 43 126 51 42 32 3 0 0 0 0 0 0 0 0 0 0 0 0 0 0 0 0 0 0 0 0 0 0 0 0
0 0 0 0 0 0 5 16 27 0 3 35 71 64 72 47 20 0 0 0 0 0 0 0 0 0 0 0 0 0 0 0 0 0 0 0 0 0 0 0 0 0 0

GFSSE_con_mlcape_084.txt.gz
CAPE
1303 1392 888 196 859 849 542 741 717 611 457 479 627 629 470 394 485 384 294 89 7 0 0 0 0 0 0 0 0 0 0 0 0 0 0 1 2 2 1 1 0 3 4
1271 1454 1157 1169 716 632 616 660 687 597 380 202 150 158 248 314 343 435 284 62 0 0 0 0 0 0 0 0 0 0 0 0 0 0 0 0 0 0 0 1 1 3 5
1200 1808 1451 1336 913 751 757 658 586 527 260 119 100 134 293 383 494 412 348 113 0 0 0 0 0 0 0 0 0 0 0 0 0 0 0 0 0 0 0 2 5 11 9
668 1373 1311 1220 1178 1044 836 638 655 438 169 121 85 150 310 584 528 553 431 79 0 0 0 0 0 0 0 0 0 0 0 0 0 0 0 0 0 0 1 1 5 8 8
561 741 1175 831 665 909 927 784 600 301 139 92 80 164 389 699 542 582 333 15 0 0 0 0 0 0 0 0 0 0 0 0 0 0 0 0 0 0 0 0 1 6 6
292 319 221 906 83 414 1012 787 548 260 128 70 118 252 519 691 666 453 343 11 0 0 0 0 0 0 0 0 0 0 0 0 0 0 0 0 0 0 0 1 3 3 3
153 130 59 517 929 758 908 716 434 214 86 49 122 286 726 898 700 567 400 26 0 0 0 0 0 0 0 0 0 0 0 0 0 0 0 0 0 0 0 2 2 2 2
180 277 87 59 446 416 949 547 317 151 74 126 129 336 676 854 891 782 471 27 0 0 0 0 0 0 0 0 0 0 0 0 0 0 0 0 0 0 0 0 2 2 2
23 25 40 0 132 189 555 399 153 102 79 80 217 446 667 758 867 739 385 0 0 0 0 0 0 0 0 0 0 0 0 0 0 0 0 0 0 1 0 0 1 1 2
19 1 0 0 0 129 318 148 9 81 88 117 151 150 432 690 801 581 218 0 0 0 0 0 0 0 0 0 0 0 0 0 0 0 0 0 1 2 0 0 3 3 3
0 0 0 0 8 17 119 40 35 71 30 21 39 134 382 616 657 413 82 0 0 0 0 0 0 0 0 0 0 0 0 0 0 0 0 0 3 6 2 0 1 1 3
0 0 25 32 34 38 87 60 81 4 0 0 2 0 28 192 338 276 106 55 10 0 0 0 0 0 0 0 0 0 0 0 0 0 0 0 6 8 6 0 0 0 0
0 0 63 25 2 6 56 73 0 0 0 0 0 0 11 82 122 101 125 64 10 0 0 0 0 0 0 0 0 0 0 0 0 0 0 0 6 4 2 4 1 0 0
1 2 8 8 5 16 8 3 0 0 0 0 0 0 0 2 34 40 57 30 0 0 0 0 0 0 0 0 0 0 0 0 0 0 0 0 0 5 3 5 4 0 0
0 0 0 0 0 0 1 0 0 0 0 1 0 0 0 3 14 42 34 0 0 0 0 0 0 0 0 0 0 0 0 0 0 0 0 0 0 5 2 3 6 5 0
1 1 2 0 0 0 0 0 0 0 0 0 0 0 0 0 4 2 0 0 0 0 0 0 0 0 0 0 0 0 0 0 0 0 0 0 0 0 0 0 2 1 0
2 3 2 0 0 0 0 0 0 0 0 0 8 4 3 8 7 3 0 0 0 0 0 0 0 0 0 0 0 0 0 0 0 0 0 0 0 0 0 0 0 0 0
2 3 2 1 0 0 0 0 0 0 7 20 56 63 33 50 57 2 3 15 0 0 0 0 0 0 0 0 0 0 0 0 0 0 0 0 0 0 0 0 0 0 0
0 1 3 1 0 0 0 0 0 0 0 0 14 39 59 81 110 55 30 2 1 0 0 0 0 0 0 0 0 0 0 0 0 0 0 0 0 0 0 0 0 0 0
1 1 1 1 0 0 0 0 0 0 0 0 0 0 53 28 93 62 38 0 0 0 0 0 0 0 0 0 0 0 0 0 0 0 0 0 0 0 0 0 0 0 0
2 1 1 0 0 0 0 0 0 0 0 0 1 1 35 0 55 106 60 1 0 0 0 0 0 0 0 0 0 0 0 0 0 0 0 0 0 0 0 0 0 0 0
1 1 1 0 0 0 0 0 0 0 0 0 0 0 0 0 0 25 38 14 0 0 0 0 0 0 0 0 0 0 0 0 0 0 0 0 0 0 0 0 0 0 0
0 0 0 0 0 0 0 0 0 0 0 0 0 0 0 0 0 12 22 7 0 0 0 0 0 0 0 0 0 0 0 0 0 0 0 0 0 0 0 0 0 0 0
0 0 0 0 0 0 0 0 0 0 0 0 0 0 0 0 0 11 20 0 0 0 0 0 0 0 0 0 0 0 0 0 0 0 0 0 0 0 0 0 0 0 0
0 0 0 0 0 0 0 0 0 0 0 0 0 0 0 0 0 7 26 0 0 0 0 0 0 0 0 0 0 0 0 0 0 0 0 0 0 0 0 0 0 0 0
0 0 0 0 0 0 0 0 0 0 0 0 0 0 0 0 0 1 29 4 0 0 0 0 0 0 0 0 0 0 0 0 0 0 0 0 0 0 0 0 0 0 0

GFSSE_con_mlcape_087.txt.gz
CAPE
991 1178 858 773 720 723 754 658 216 196 711 658 514 455 596 617 570 444 229 76 1 0 0 0 0 0 0 0 0 0 0 0 1 5 6 7 5 4 5 5 2 5 9
1436 1457 1124 1020 870 1184 624 675 327 75 277 310 265 417 587 575 465 243 54 2 0 0 0 0 0 0 0 0 2 2 2 0 0 0 0 1 3 4 8 6 12 10 20
1710 1528 1311 901 982 1301 1135 653 718 858 194 496 491 610 598 541 317 51 0 0 0 0 1 4 3 1 0 0 0 0 0 0 0 0 0 0 0 3 8 7 5 12 21
1306 1491 1388 892 807 1190 1120 849 730 864 950 898 831 741 663 532 271 66 0 1 0 2 4 7 8 9 4 0 0 0 0 0 0 0 0 0 0 2 6 8 7 17 20
942 1335 1548 1145 585 649 673 1194 663 433 560 743 740 725 700 629 273 119 3 0 42 9 3 1 0 0 0 0 0 0 0 0 0 0 0 0 0 0 1 1 6 11 13
712 904 1383 1065 727 213 311 494 1085 425 456 514 651 846 742 699 359 124 23 7 38 0 0 0 0 0 0 0 0 0 0 0 0 0 0 0 0 1 2 1 0 0 3
455 447 970 572 206 205 225 156 555 707 376 319 718 856 862 732 285 87 11 1 0 0 0 0 0 0 0 0 0 0 0 0 0 0 0 0 0 1 2 2 1 2 3
194 251 351 585 463 296 117 172 152 403 328 358 681 822 838 615 350 89 1 0 0 0 0 0 0 0 0 0 0 0 0 0 0 0 0 0 0 0 1 2 2 2 3
99 110 52 54 465 359 270 375 152 154 243 137 867 915 729 601 371 47 0 0 0 0 0 0 0 0 0 0 0 0 0 0 0 0 0 0 0 0 4 5 4 3 3
37 49 2 1 128 306 258 185 93 70 244 358 767 803 666 677 356 4 0 0 0 0 0 0 0 0 1 0 0 0 0 0 0 0 0 0 2 1 3 4 4 3 2
12 4 1 0 0 153 205 82 101 47 492 410 652 605 572 585 300 0 0 0 0 0 0 0 0 0 0 0 0 0 0 0 0 0 0 2 4 2 3 4 4 4 3
1 2 14 16 30 0 149 110 78 67 105 342 457 665 604 464 151 0 0 0 0 0 0 0 0 0 0 0 0 0 0 0 0 0 0 3 5 5 3 3 1 2 3
0 5 107 26 4 1 0 23 12 34 111 91 232 315 226 272 64 0 0 0 0 0 0 0 0 0 0 0 0 0 0 0 0 0 0 3 5 4 5 3 1 0 1
0 2 1 0 12 3 66 67 5 23 62 56 45 68 112 118 23 0 0 0 0 0 0 0 0 0 0 0 0 0 0 0 0 0 0 1 3 5 4 6 3 1 0
0 0 0 0 1 2 1 0 0 7 40 37 33 48 58 49 5 12 1 0 0 0 0 0 0 0 0 0 0 0 0 0 0 0 0 0 0 0 3 9 6 1 0
0 0 0 0 3 4 4 0 4 5 1 3 39 48 28 20 23 26 4 0 0 0 0 0 0 0 0 0 0 0 0 0 0 0 0 0 0 0 1 2 2 1 0
0 0 0 0 0 0 1 0 0 0 2 5 5 16 31 11 29 21 7 0 0 0 0 0 0 0 0 0 0 0 0 0 0 0 0 0 0 0 0 0 0 0 0
1 1 1 0 0 0 0 0 0 0 0 13 28 13 5 17 12 9 1 0 0 0 0 0 0 0 0 0 0 0 0 0 0 0 0 0 0 0 0 0 0 0 0
2 2 3 2 0 0 0 0 0 0 4 45 33 2 16 4 11 4 0 0 0 0 0 0 0 0 0 0 0 0 0 0 0 0 0 0 0 0 0 0 0 0 0
2 1 2 2 0 0 0 0 5 0 0 12 38 35 51 55 40 0 0 0 0 0 0 0 0 0 0 0 0 0 0 0 0 0 0 0 0 0 0 0 0 0 0
2 1 1 1 0 0 0 0 0 0 0 0 5 38 30 51 109 72 10 8 0 0 0 0 0 0 0 0 0 0 0 0 0 0 0 0 0 0 0 0 0 0 0
1 1 1 0 0 0 0 0 0 0 0 0 6 2 18 22 56 63 31 4 0 0 0 0 0 0 0 0 0 0 0 0 0 0 0 0 0 0 0 0 0 0 0
0 1 0 0 0 0 0 0 0 0 0 0 0 2 6 28 2 9 41 0 0 0 0 0 0 0 0 0 0 0 0 0 0 0 0 0 0 0 0 0 0 0 0
1 0 0 0 0 0 0 0 0 0 0 0 0 0 0 0 0 0 1 0 0 0 0 0 0 0 0 0 0 0 0 0 0 0 0 0 0 0 0 0 0 0 0
0 0 0 0 0 0 0 0 0 0 0 0 0 0 0 0 0 0 0 0 0 0 0 0 0 0 0 0 0 0 0 0 0 0 0 0 0 0 0 0 0 0 0
0 0 0 0 0 0 0 0 0 0 0 0 0 0 0 0 0 0 0 0 0 0 0 0 0 0 0 0 0 0 0 0 0 0 0 0 0 0 0 0 0 0 0

GFSSE_con_mlcape_093.txt.gz
CAPE
939 1006 1160 1195 1302 1693 1658 1318 1105 1063 911 668 607 684 647 617 618 728 766 497 392 173 47 11 4 3 7 10 11 7 3 2 5 6 6 10 5 7 3 1 0 2 2
911 1144 1141 1093 1228 1638 1812 1463 1302 1402 1385 1260 836 868 978 783 750 795 725 560 270 96 20 2 3 6 10 12 5 1 0 1 3 6 10 9 10 33 19 15 21 25 21
1186 1185 1276 1450 1464 1584 1802 1814 1594 1576 1510 1231 1114 951 888 867 827 741 494 304 107 18 2 5 3 5 4 3 2 1 0 0 0 0 2 7 6 12 16 23 35 35 30
1541 1394 1191 1322 1343 1626 1791 1955 1759 1583 1342 1335 1285 1180 983 760 575 356 175 126 14 2 3 1 0 1 1 0 0 0 0 0 0 0 0 0 18 22 26 24 22 26 28
1692 1663 1360 1410 1404 1702 1768 1938 1841 1604 1502 1297 1274 1063 855 549 366 157 102 75 47 40 4 1 0 0 0 0 0 0 0 0 0 0 0 0 19 26 15 9 5 3 4
1465 1632 1293 918 1328 1507 1802 1939 1822 1614 1501 1257 1137 937 699 427 422 262 199 199 151 78 35 4 0 0 0 0 0 0 0 0 0 0 0 0 1 7 5 5 5 3 3
817 609 917 929 1061 1273 1715 1813 1761 1615 1349 1257 863 708 452 466 402 328 296 236 169 206 79 4 0 0 0 0 0 0 0 0 0 0 0 0 4 4 2 3 2 3 4
285 191 147 645 769 702 1506 1686 1572 1328 1095 1214 860 396 394 457 312 257 254 291 222 102 8 34 0 0 0 0 0 0 0 0 0 0 0 0 3 2 1 1 1 1 2
98 109 56 66 151 102 352 606 1080 1052 964 1053 738 458 305 358 254 236 269 131 30 3 0 5 0 0 0 0 0 0 0 0 0 0 0 0 3 2 3 3 3 1 1
59 129 112 163 22 151 26 319 587 844 883 893 609 516 290 237 241 169 75 21 0 3 1 0 0 0 0 0 0 0 0 0 0 0 0 2 6 5 3 3 1 1 1
42 74 55 95 278 92 199 278 467 530 837 800 661 369 187 276 200 100 26 0 0 59 38 0 0 0 0 0 0 0 0 0 0 0 1 3 4 2 2 2 2 2 0
37 33 36 67 67 108 320 297 251 743 980 886 650 331 228 259 173 26 0 0 3 62 18 0 0 0 0 0 0 0 0 0 0 0 1 3 2 3 1 0 1 2 2
0 2 11 18 12 6 67 130 152 77 217 357 492 234 172 135 22 0 0 0 1 60 51 2 0 0 0 0 0 0 0 0 0 0 0 1 3 3 3 2 1 2 2
5 0 0 16 27 71 15 144 19 0 50 206 167 187 90 49 0 0 0 0 0 45 56 6 0 0 0 0 0 0 0 0 0 0 0 0 1 3 3 3 2 2 1
1 1 0 1 15 9 15 35 42 1 5 66 109 151 55 21 0 0 0 0 0 0 0 2 0 0 0 0 0 0 0 0 0 0 1 0 0 2 3 2 2 1 0
0 0 0 1 1 1 7 18 69 1 1 42 54 17 67 46 0 0 0 0 0 0 0 0 0 0 0 0 0 0 0 0 0 1 0 0 0 0 3 4 1 0 0
1 0 1 1 1 0 1 5 16 1 0 8 59 38 54 28 0 0 0 0 0 0 0 0 0 0 0 0 0 0 0 0 0 0 0 0 0 0 0 0 0 0 0
0 0 0 1 1 0 2 4 4 3 3 24 27 56 67 14 0 0 0 0 0 0 0 0 0 0 0 0 0 0 0 0 0 0 0 0 0 0 0 0 0 0 0
1 0 0 0 0 1 0 1 3 2 0 4 29 10 46 39 0 0 0 0 0 0 0 0 0 0 0 0 0 0 0 0 0 0 0 0 0 0 0 0 0 0 0
1 1 1 1 1 1 1 1 3 4 3 2 10 36 49 53 10 0 0 1 0 0 0 0 0 0 0 0 0 0 0 0 0 0 0 0 0 0 0 0 0 0 0
2 1 1 1 1 0 1 0 1 0 0 9 30 13 27 46 59 41 6 9 6 0 0 0 0 0 0 0 0 0 0 0 0 0 0 0 0 0 0 0 0 0 0
0 2 2 1 2 2 1 0 0 0 0 5 18 23 45 45 53 48 23 7 22 9 0 0 0 0 0 0 0 0 0 0 0 0 0 0 0 0 0 0 0 0 0
0 2 1 1 1 0 0 0 0 0 0 0 5 15 31 27 32 25 23 23 23 26 6 0 0 0 0 0 0 0 0 0 0 0 0 0 0 0 0 0 0 0 0
2 2 2 2 1 0 0 0 0 0 0 0 0 0 1 12 25 31 20 24 18 23 13 0 0 0 0 0 0 0 0 0 0 0 0 0 0 0 0 0 0 0 0
3 2 1 1 1 0 0 0 0 0 0 0 0 1 0 4 16 13 66 50 48 46 12 10 0 0 0 0 0 0 0 0 0 0 0 0 0 0 0 0 0 0 0
0 1 2 1 0 0 0 0 0 0 0 0 0 0 0 1 9 21 25 18 44 54 20 12 3 0 0 0 0 0 0 0 0 0 0 0 0 0 0 0 0 0 0

GFSSE_con_mlcape_096.txt.gz
CAPE
1096 1195 899 1320 1517 1597 1128 1040 1067 1023 992 893 890 509 831 1020 743 716 609 422 286 238 34 6 7 6 9 11 7 2 3 1 2 6 3 4 1 0 0 0 0 16 8
1291 1122 1058 1475 1669 1711 1582 1157 1028 1016 1043 1176 1046 863 927 1088 1046 750 637 551 337 135 5 9 7 9 9 8 0 0 0 0 2 3 10 16 6 12 5 8 5 6 5
1472 1263 1249 1583 1727 2013 1757 1434 1271 1489 1348 1284 1124 1022 1055 1202 1047 934 788 421 224 48 10 6 4 5 7 4 0 0 0 0 0 0 4 29 27 33 31 28 23 23 16
1637 1467 1365 1470 1627 2080 1987 1669 1629 1709 1529 1318 1211 1163 1193 1231 1076 859 573 269 127 3 6 3 2 4 3 0 0 0 0 0 0 1 2 11 35 37 32 23 11 13 10
1231 1721 1393 1478 1600 2010 2071 1866 1798 1808 1586 1349 1259 1172 1203 1136 990 690 323 180 70 3 2 3 0 0 0 0 0 0 0 0 0 0 3 18 7 15 3 3 4 6 1
1223 1812 1431 1214 1469 1889 2131 2025 1961 1870 1584 1436 1286 1249 1147 946 718 387 208 113 82 0 0 0 0 0 0 0 0 0 0 0 0 0 0 1 1 5 2 0 0 0 3
1146 1593 633 764 1053 1511 2075 2057 2002 1781 1638 1412 1320 1108 941 725 485 240 172 178 102 32 0 0 0 0 0 0 0 0 0 0 0 0 0 0 0 3 4 4 4 4 3
754 917 157 41 51 305 1623 2022 1935 1793 1578 1324 1174 894 790 611 388 252 256 161 181 86 0 0 0 0 0 0 0 0 0 0 0 0 0 0 4 4 3 3 2 1 2
561 397 36 0 35 40 497 1625 1369 1613 1398 1223 941 795 663 482 387 385 198 319 238 105 46 0 0 0 0 0 0 0 0 0 0 0 0 0 3 1 3 2 1 2 2
352 373 92 0 4 2 155 214 204 604 878 1042 757 736 488 371 335 334 349 220 145 69 35 0 0 0 0 0 0 0 0 0 0 0 0 0 6 3 3 1 1 1 1
73 178 218 0 0 0 87 19 0 118 574 740 629 649 397 502 379 324 232 122 61 43 12 0 0 0 0 0 0 0 0 0 0 0 0 2 8 5 3 1 1 1 1
529 22 113 22 15 13 32 86 0 15 480 794 611 591 199 396 273 192 112 41 32 64 18 0 0 0 0 0 0 0 0 0 0 0 0 2 5 4 2 3 1 1 0
290 200 34 144 139 192 229 250 217 39 232 535 503 277 304 310 220 114 11 11 104 69 35 0 0 0 0 0 0 0 0 0 0 0 0 3 4 2 2 2 1 2 1
273 149 138 49 197 184 156 203 113 102 297 340 368 241 410 355 156 22 0 10 64 54 46 10 0 1 0 0 0 0 0 0 0 0 0 0 3 5 5 3 1 1 1
115 40 110 119 104 97 178 197 105 173 109 277 219 172 254 160 44 7 9 14 36 75 63 48 34 14 0 0 0 0 0 0 0 0 0 0 1 4 6 5 3 1 1
0 8 54 79 32 35 32 53 50 55 139 244 253 140 137 113 5 6 11 0 35 88 87 58 29 0 0 0 0 0 0 0 0 0 1 1 1 4 6 4 3 2 0
1 2 2 3 12 4 3 5 65 65 51 133 164 112 42 8 0 0 7 0 0 2 14 27 3 0 0 0 0 0 0 0 0 0 1 1 2 1 0 0 1 1 0
2 0 2 2 3 4 1 1 13 56 8 29 122 108 21 1 22 1 1 0 0 0 0 0 0 0 0 0 0 0 0 0 0 0 1 5 2 1 1 0 0 0 0
6 2 2 4 4 0 0 1 7 23 23 17 90 89 12 21 28 42 14 0 0 0 0 0 0 0 0 0 0 0 0 0 0 0 1 7 4 1 1 0 0 0 0
3 2 2 3 3 1 0 3 5 9 16 22 22 44 16 17 21 18 0 6 0 0 0 0 0 0 0 0 0 0 0 0 0 0 0 0 0 0 0 0 0 0 0
3 3 2 2 3 2 0 1 2 2 1 2 2 8 14 18 42 11 12 12 0 0 1 0 0 0 0 0 0 0 0 0 0 0 0 0 0 0 0 0 0 0 0
4 4 3 2 2 2 1 0 0 2 2 2 1 0 17 24 44 23 12 30 18 10 9 2 0 0 0 0 0 0 0 0 0 0 0 0 0 0 0 0 0 0 0
2 3 3 3 1 1 0 0 0 0 2 2 2 16 10 20 41 25 42 41 61 61 34 16 0 0 0 0 0 0 0 0 0 0 0 0 0 0 0 0 0 0 0
2 10 7 1 2 2 2 0 0 0 0 3 1 1 1 5 31 68 73 63 76 68 68 30 3 0 0 0 0 0 0 0 0 0 0 0 0 0 0 0 0 0 0
1 4 2 5 3 2 2 2 1 0 0 0 15 17 1 7 28 30 44 48 55 58 75 76 11 1 3 19 0 0 0 0 0 0 0 0 0 0 0 0 0 0 0
4 5 3 3 4 2 0 1 0 0 0 0 0 0 5 14 17 8 3 20 14 61 86 119 124 91 32 13 20 0 0 0 0 0 0 0 0 0 0 0 0 0 0

GFSSE_con_mlcape_102.txt.gz
CAPE
1578 1261 1168 1364 1134 1050 1206 1209 1004 848 657 680 863 1002 1017 843 643 461 310 179 157 177 135 91 53 38 4 0 0 0 0 0 0 3 5 11 13 13 16 1 4 9 12
1610 1453 1078 1410 1405 1103 1175 1191 1168 1117 1006 881 1024 1172 1102 883 707 499 345 334 307 194 66 50 2 2 0 0 0 0 0 0 0 0 0 0 3 0 0 5 9 6 8
1487 1611 1146 1225 1677 1455 1350 1258 1232 1324 1244 1302 1336 1202 1196 1022 794 621 676 550 302 248 91 31 3 5 5 0 0 0 0 0 0 0 0 0 0 0 0 5 13 12 18
982 1668 1656 1121 1508 1849 1546 1481 1456 1445 1312 1306 1326 1145 1212 1188 891 903 738 409 237 177 71 33 22 5 1 0 0 0 0 0 0 4 9 10 13 9 11 7 4 2 4
867 1054 1773 1478 1223 1726 1907 1618 1458 1480 1450 1301 1135 232 869 947 1051 1012 612 339 284 200 34 42 38 11 0 0 0 0 0 2 21 4 8 14 11 9 8 8 6 5 5
669 1240 1375 1557 1441 1364 1675 1829 1516 1371 1501 1230 918 137 468 664 1018 830 512 321 215 52 25 47 22 0 0 0 0 0 0 0 0 0 3 2 3 12 2 0 0 0 4
682 1225 1722 1464 1510 1489 1423 1648 1745 1418 1486 1287 887 774 738 643 862 693 413 274 120 50 14 14 2 0 0 0 0 0 0 0 0 0 0 0 7 8 2 3 4 6 6
868 1259 1810 1005 1094 1510 1575 1360 1454 1475 779 1176 1091 865 553 121 305 443 333 240 129 21 16 1 0 0 0 0 0 0 0 0 0 0 0 0 4 5 4 5 6 7 8
1277 1253 1278 1118 607 503 917 900 704 380 44 656 730 647 25 100 393 344 290 177 51 21 5 0 0 0 0 0 0 0 0 0 0 0 0 1 7 6 7 8 9 7 7
953 808 885 641 187 91 59 29 50 69 0 0 511 499 42 430 411 263 184 73 9 0 0 0 0 0 0 0 0 0 0 0 0 0 0 0 3 8 6 7 7 5 4
790 675 579 321 130 29 10 18 46 1 0 1 312 299 242 354 368 218 131 32 0 0 0 0 0 0 0 0 0 0 0 0 0 0 0 1 10 10 10 7 4 2 2
1179 790 712 443 255 13 2 0 27 4 0 0 270 230 270 386 361 201 91 7 0 0 0 0 0 0 0 0 0 0 0 9 0 0 0 4 5 11 5 2 2 2 3
663 954 434 307 87 0 32 3 8 0 0 4 128 111 241 410 227 213 112 0 0 0 0 0 0 0 0 0 0 0 0 11 0 0 0 1 5 5 2 2 2 4 4
695 592 387 230 9 0 73 0 40 36 25 44 251 206 331 241 160 171 100 0 0 0 0 0 0 0 0 0 0 1 0 13 0 0 0 0 0 4 6 3 3 3 4
427 358 296 175 156 11 2 34 41 14 0 8 64 217 220 106 197 158 114 30 0 0 0 0 0 0 0 0 0 0 2 9 0 0 0 0 0 5 8 5 3 3 4
359 295 158 153 204 210 150 34 62 8 0 0 33 220 193 145 238 129 108 84 0 0 0 0 0 4 0 0 0 0 0 3 0 0 0 0 0 2 4 5 2 2 3
263 126 8 91 115 109 135 147 134 101 0 34 32 119 174 204 179 63 65 91 54 8 6 0 0 11 1 0 0 0 0 0 1 0 0 0 0 0 1 3 0 0 1
176 33 3 3 15 19 31 108 153 103 78 21 0 18 67 151 120 49 56 66 87 70 74 5 47 2 0 0 0 0 0 0 8 0 0 0 0 0 0 0 0 0 1
169 8 3 1 0 6 7 5 56 95 42 44 4 6 13 50 53 85 65 90 144 99 111 91 9 0 0 0 0 0 0 0 0 1 0 0 0 0 0 0 0 0 0
30 3 1 0 2 3 0 0 0 37 99 84 2 0 8 1 27 28 50 96 48 66 95 58 17 0 0 0 0 0 0 0 0 0 0 4 0 0 0 0 0 0 0
0 1 0 2 1 0 0 1 0 0 1 93 68 1 0 3 0 14 32 25 18 44 57 52 14 2 0 0 0 0 0 0 0 0 0 0 0 0 0 0 0 0 0
0 0 0 3 0 1 3 2 4 4 1 22 86 8 0 0 0 0 2 27 28 6 10 26 12 1 2 1 1 0 0 0 0 0 0 0 0 0 0 0 0 0 0
0 0 0 0 1 1 2 1 1 2 18 25 59 5 2 0 0 0 0 0 18 18 19 28 30 22 34 28 6 0 0 0 0 0 0 0 0 0 0 0 0 0 0
0 0 1 0 0 2 1 1 0 1 2 2 41 3 2 0 0 0 4 12 1 17 42 35 59 90 69 35 0 0 0 4 6 0 0 0 0 0 0 0 0 0 0
0 0 1 2 1 1 1 0 0 1 2 1 1 1 1 2 0 0 2 0 8 44 68 68 92 95 71 34 15 4 0 0 1 0 0 0 0 0 0 0 0 0 0
12 0 1 2 1 0 0 0 0 0 2 2 1 2 2 2 3 0 0 6 34 42 69 69 94 89 73 57 19 8 0 1 0 0 0 0 0 0 0 0 0 0 0

GFSSE_con_mlcape_105.txt.gz
CAPE
1246 1314 1159 1083 1212 1161 1011 1015 927 746 773 959 1116 1043 958 843 746 672 584 444 399 469 468 411 291 227 171 89 44 29 15 13 21 1 43 33 22 17 7 0 4 22 26
1294 1488 1302 1227 1207 1150 1085 996 923 823 932 869 1138 1064 958 811 678 565 434 398 445 474 413 372 241 155 15 0 0 0 0 0 0 0 0 17 17 23 9 3 4 18 23
1476 1459 1500 1308 1123 1203 1210 1162 1147 1114 1086 1079 1292 1102 993 803 604 438 451 540 464 378 291 261 193 51 0 0 0 0 0 0 0 0 0 0 7 6 10 14 17 21 25
1543 1400 1503 1441 1323 1234 1184 1242 1417 1203 1213 1205 1357 1318 1033 917 795 723 656 526 398 282 106 40 39 1 0 0 0 0 0 0 0 0 0 1 1 10 19 19 16 14 12
1445 1565 1466 1515 1468 1407 1295 1300 1407 1305 1401 1265 1227 1132 999 639 1075 944 642 460 379 227 60 32 14 2 0 0 0 0 2 7 2 0 0 0 8 6 5 3 3 10 9
852 1424 1673 1506 1575 1527 1513 1431 1322 1588 1419 1033 1157 980 523 555 694 732 604 449 292 140 74 20 8 0 7 6 0 0 3 0 0 0 0 6 2 5 3 8 8 9 8
977 1189 1348 1476 1528 1685 1619 1625 1448 1502 1440 1199 753 477 190 97 404 399 396 573 287 102 50 3 0 0 0 0 0 0 0 0 0 0 0 0 3 3 10 8 8 2 2
922 1483 1419 1418 1495 1619 1876 1840 1647 1499 1385 1127 505 267 68 79 10 279 328 404 218 77 24 4 0 0 0 0 0 0 0 0 0 0 0 0 4 7 10 5 6 5 5
966 1403 1402 1080 912 1316 1565 1793 1810 1577 1254 887 307 218 252 46 87 320 308 279 135 48 28 1 0 0 0 0 0 0 0 0 0 0 0 0 5 6 5 5 5 6 8
955 812 804 787 553 199 343 828 1080 1407 1080 588 343 85 228 85 138 322 290 182 85 18 4 0 0 0 0 0 0 0 0 0 0 0 0 1 2 2 4 2 5 8 5
630 511 350 341 80 1 0 5 24 175 307 313 79 73 100 63 239 253 206 138 34 4 0 0 0 0 0 0 0 0 0 0 0 0 0 1 1 2 2 5 5 4 5
777 692 571 380 198 53 0 0 1 6 31 18 6 0 91 83 131 114 144 105 20 0 0 0 0 0 0 0 0 0 0 0 0 0 0 0 2 3 4 3 4 7 4
956 803 665 487 188 21 0 0 0 8 29 0 0 1 67 196 189 97 36 13 3 0 0 0 0 0 0 0 0 0 0 0 0 0 0 0 5 5 4 5 4 3 4
732 710 457 250 40 0 0 0 0 0 0 2 0 0 80 199 168 31 2 1 0 0 0 0 0 0 0 0 0 0 0 0 0 0 0 0 3 6 7 4 2 3 3
616 461 325 192 27 0 0 0 0 14 3 16 1 90 134 143 124 11 1 0 0 0 0 0 0 0 0 0 0 0 0 0 0 0 0 0 2 4 6 3 2 1 3
277 293 196 109 70 0 0 0 0 1 0 3 0 58 90 92 74 8 0 0 0 0 0 0 0 0 0 0 0 0 0 0 0 0 0 0 0 5 5 2 1 2 2
226 193 35 21 87 21 15 0 1 1 1 22 61 129 136 160 55 15 0 0 0 0 0 0 0 0 0 0 0 0 0 0 0 0 0 0 0 0 0 0 0 2 4
131 27 0 54 40 30 52 9 38 3 0 29 30 117 121 186 110 60 5 0 0 0 0 0 0 0 0 0 0 0 0 0 0 0 0 0 0 0 0 0 0 0 1
23 0 0 2 13 9 9 38 57 12 0 41 35 90 85 94 91 54 40 3 11 0 0 0 0 0 0 0 0 0 0 0 0 0 0 0 0 0 0 0 0 0 0
0 0 0 0 1 2 0 3 15 53 14 4 1 40 56 57 30 22 42 28 21 6 16 0 0 0 0 0 0 0 0 0 0 0 0 0 0 0 0 0 0 0 0
0 0 0 0 4 0 0 0 0 6 19 18 2 30 40 15 12 8 35 36 70 42 36 4 0 0 0 0 0 0 0 0 0 0 0 0 0 0 0 0 0 0 0
0 0 0 0 0 0 0 0 0 0 2 63 14 8 27 2 0 0 7 21 45 39 52 24 0 0 0 0 0 0 0 0 0 0 0 0 0 0 0 0 0 0 0
0 0 0 0 0 0 2 1 0 0 1 4 45 4 8 0 0 0 0 1 25 20 17 3 1 1 0 0 0 0 0 0 0 0 0 0 0 0 0 0 0 0 0
0 0 0 0 0 1 3 0 3 3 1 1 0 2 3 0 0 0 0 0 8 12 1 0 0 2 7 10 0 1 0 4 0 0 0 0 0 0 0 0 0 0 0
0 0 0 0 0 0 1 0 0 0 1 1 7 2 2 1 0 0 0 0 0 0 0 0 7 24 34 28 5 5 0 0 0 0 0 0 0 0 0 0 0 0 0
0 0 0 1 0 0 2 2 0 0 1 0 5 1 1 2 1 0 0 0 0 3 3 2 23 44 38 38 46 29 0 1 0 3 1 0 0 0 0 0 0 0 0

GFSSE_con_mlcape_108.txt.gz
CAPE
1187 1133 1175 1221 1262 966 862 755 815 1053 1009 956 998 1103 1178 1131 1046 1067 1009 855 838 838 781 741 807 811 762 654 437 343 299 209 172 137 103 62 53 35 37 11 24 47 43
1180 1264 1160 1238 1236 1032 961 803 845 1098 1228 1052 981 962 935 927 929 905 840 822 885 814 697 604 629 699 615 310 122 52 34 40 47 47 31 27 21 23 19 1 18 34 34
1197 1332 1193 1187 1295 1033 1000 944 963 1113 1369 1334 1181 1089 1007 944 835 725 712 836 815 651 381 299 352 387 255 53 22 13 0 1 0 0 0 1 25 27 12 4 13 15 32
1232 1319 1255 1195 1263 1166 1113 1125 1288 1301 1340 1334 1260 1092 986 864 821 790 700 699 678 529 493 483 295 133 37 13 15 4 0 0 0 0 0 0 13 15 19 14 20 24 19
1348 1459 1354 1186 1199 1145 1105 1235 1297 1405 1438 1339 1293 1128 928 797 816 816 656 585 516 415 370 400 179 6 0 0 1 5 0 0 0 0 0 0 1 17 12 16 13 6 9
1231 1406 1531 1323 1224 1247 1237 1351 1379 1453 1008 911 1356 1065 1064 1068 1009 724 610 586 459 296 211 108 15 0 0 9 48 0 2 0 0 0 0 3 9 13 11 11 11 8 6
1173 1429 1575 1511 1411 1421 1483 1453 1548 1628 1336 1185 1105 767 341 861 798 623 558 467 387 298 158 79 24 8 6 5 6 0 0 0 0 0 0 3 11 3 4 8 2 2 2
847 1257 1387 1570 1672 1674 1711 1675 1601 1280 1343 1183 550 53 23 487 742 573 476 391 275 253 81 49 13 0 0 0 0 0 0 0 0 0 0 0 7 7 6 2 2 6 4
1026 1096 1220 1361 1533 1766 1969 1917 1788 1471 1021 900 254 67 119 188 125 363 269 361 200 127 52 27 7 0 0 0 0 2 0 0 0 0 0 0 7 9 5 6 6 6 4
951 981 983 955 946 1072 1456 1564 1749 1718 1025 628 244 34 47 0 30 213 227 317 158 49 9 4 0 0 0 0 0 0 0 0 0 0 0 1 6 6 5 8 7 6 8
643 663 741 602 353 213 219 545 890 892 1067 518 204 12 16 0 13 357 363 206 101 25 0 1 0 0 0 0 0 0 0 0 0 0 0 4 6 7 8 6 5 5 4
383 338 273 249 92 25 18 3 13 47 363 350 149 72 95 4 68 47 272 124 61 4 7 10 0 0 0 0 0 0 0 0 0 0 0 2 6 6 10 6 3 2 3
437 516 464 288 177 87 21 1 0 0 4 136 87 91 140 92 58 119 167 70 10 0 0 0 0 0 0 0 0 0 0 0 0 0 0 0 0 5 4 1 1 1 3
585 628 572 422 240 21 0 0 0 0 0 43 32 67 76 72 44 143 99 10 0 0 0 0 0 0 0 0 0 0 0 0 0 0 0 0 0 2 1 1 2 3 4
515 645 567 312 116 0 0 0 0 0 0 0 18 2 21 74 63 62 20 2 0 0 0 0 0 0 0 0 0 0 0 0 0 0 0 0 0 0 1 1 2 2 7
543 637 345 152 5 0 0 0 0 0 1 3 3 2 0 27 60 35 2 0 0 0 0 0 0 0 0 0 0 0 0 0 0 0 0 0 0 0 0 2 1 3 6
512 357 184 32 0 0 0 0 0 0 0 4 8 0 11 80 66 1 1 0 0 0 0 0 0 0 0 0 0 0 0 0 0 0 0 0 0 0 0 0 1 4 6
347 233 21 17 27 6 10 0 0 0 1 7 3 51 47 28 60 5 0 0 0 0 0 0 0 0 0 0 0 0 0 0 0 0 0 0 0 0 0 0 2 3 5
278 127 4 6 18 0 24 2 0 0 1 7 0 64 100 91 56 0 0 0 0 0 0 0 0 0 0 0 0 0 0 0 0 0 0 0 0 0 0 0 0 0 0
101 22 0 0 9 0 1 28 6 1 0 38 20 33 82 89 60 0 0 0 0 0 0 0 0 0 0 0 0 0 0 0 0 0 0 0 0 0 0 0 0 0 0
40 3 0 0 0 0 0 1 6 1 0 6 26 33 46 64 55 11 0 0 0 0 0 0 0 0 0 0 0 0 0 0 0 0 0 0 0 0 0 0 0 0 0
40 1 0 0 0 0 0 0 1 2 1 0 2 22 74 41 20 12 0 0 0 0 0 0 0 0 0 0 0 0 0 0 0 0 0 0 0 0 0 0 0 0 0
37 0 0 0 0 0 0 0 0 0 0 6 3 16 29 7 1 4 5 0 0 0 0 0 0 0 0 0 0 0 0 0 0 0 0 0 0 0 0 0 0 0 0
20 0 0 0 0 0 0 0 0 0 0 0 18 7 39 9 0 12 8 1 7 5 2 0 0 0 0 0 0 0 0 0 0 0 0 0 0 0 0 0 0 0 0
7 0 0 0 0 0 1 0 0 0 0 0 0 24 10 13 2 0 0 4 19 15 8 2 0 0 0 0 0 0 0 0 0 0 0 0 0 0 0 0 0 0 0
3 0 0 0 0 0 0 0 0 0 2 0 1 1 4 10 2 0 0 0 6 0 2 1 0 0 0 0 0 0 0 0 7 0 5 3 1 0 0 0 0 0 0

GFSSE_con_mlcape_111.txt.gz
CAPE
844 886 1175 1242 1144 1146 1070 969 894 1201 1340 1502 1422 1258 1137 1130 1067 1055 966 1005 1086 1082 996 914 833 871 772 776 646 511 359 212 159 153 102 113 67 72 92 51 31 44 78
841 976 1166 1278 1054 972 966 1148 949 1247 1466 1575 1570 1498 1376 1291 1288 1202 1214 1175 1117 1086 1014 1034 818 756 741 625 519 425 351 240 147 86 46 61 62 56 73 38 15 19 29
953 952 1161 1311 1110 910 917 1205 1183 1109 1474 1668 1678 1587 1474 1378 1285 1189 1258 1211 1163 973 915 800 807 841 700 522 350 287 216 117 48 29 12 2 14 32 25 5 17 31 29
966 966 1122 1309 1216 951 990 1265 1497 1439 1303 1420 1545 1521 1499 1457 1349 1236 1221 1190 1079 935 731 823 870 746 528 333 170 83 35 11 0 0 0 0 17 21 21 24 2 4 18
980 1005 1114 1252 1247 1071 1062 1240 1508 1619 1297 1191 1277 1343 1253 1210 1224 1203 1110 1018 853 631 620 584 641 606 324 120 49 23 2 0 0 0 0 0 2 15 6 2 8 5 12
1080 1167 1165 1185 1260 1209 1202 1300 1454 1403 1323 1382 1338 1176 1211 1258 1249 1191 1009 902 816 727 605 620 438 303 105 45 2 0 0 0 0 0 0 0 0 6 5 3 2 8 7
909 1198 1211 1149 1295 1379 1335 1370 1518 1403 1409 1352 1138 1130 965 1017 869 992 938 909 745 720 646 372 167 60 51 1 0 0 0 0 0 0 0 0 3 5 14 5 4 6 2
679 1072 1303 1254 1305 1449 1564 1521 1488 1372 1443 1297 800 887 831 377 112 346 856 798 561 479 310 171 90 51 32 0 0 0 0 0 0 0 0 0 7 3 4 4 3 4 3
1008 1063 1317 1378 1410 1463 1634 1674 1533 1399 1247 1024 830 570 135 17 19 37 566 443 425 280 266 140 38 16 1 0 0 0 0 0 0 0 0 1 5 12 6 10 6 5 4
822 1008 1076 1330 1464 1589 1655 1667 1685 1480 1328 924 455 3 28 62 41 33 232 376 336 202 205 85 26 5 0 0 0 0 0 0 0 0 0 0 6 10 10 7 7 8 10
777 829 866 994 1158 1281 1418 1495 1561 1568 1106 775 288 50 80 200 121 14 310 429 287 217 137 44 13 0 0 0 0 0 0 0 0 0 0 1 7 10 6 3 10 10 9
467 583 695 649 615 488 627 967 1096 1218 1126 560 188 119 82 31 6 98 101 356 214 166 93 18 2 0 0 0 0 0 0 0 0 0 0 0 5 7 9 7 7 8 10
269 319 447 477 208 38 11 6 74 346 462 382 122 32 41 13 11 113 141 259 126 99 51 1 0 0 0 0 0 0 0 0 0 0 0 2 6 8 6 7 4 4 3
127 230 298 231 45 0 0 0 0 0 0 67 90 20 18 12 41 47 17 50 98 29 0 0 0 0 0 0 0 0 0 0 0 0 0 3 6 8 6 7 5 6 5
82 218 305 192 66 3 0 0 0 0 0 3 27 57 67 23 27 19 92 89 25 0 0 0 0 0 0 0 0 0 0 0 0 0 0 0 3 6 6 7 7 5 4
130 295 423 411 178 4 0 0 0 0 0 2 24 52 134 42 36 50 76 34 0 0 0 0 0 0 0 0 0 0 0 0 0 0 0 0 1 0 2 4 6 2 2
159 280 410 494 168 0 0 0 0 0 0 0 0 13 51 48 40 93 41 5 0 0 0 0 0 0 0 0 0 0 0 0 0 0 0 0 0 0 0 2 2 1 1
259 344 403 415 42 0 0 0 0 0 0 0 2 2 3 27 40 22 1 0 0 0 0 0 0 0 0 0 0 0 0 0 0 0 0 0 0 0 0 0 1 1 1
325 364 474 190 6 0 0 0 0 0 0 1 4 5 8 30 2 7 0 0 0 0 0 0 0 0 0 0 0 0 0 0 0 0 0 0 0 0 0 0 0 0 0
378 400 261 41 4 0 12 10 1 0 0 1 6 5 7 45 5 1 0 0 0 0 0 0 0 0 0 0 0 0 0 0 0 0 0 0 0 0 0 0 0 0 0
365 334 92 25 3 0 0 21 0 0 2 2 4 4 18 35 9 0 0 0 0 0 0 0 0 0 0 0 0 0 0 0 0 0 0 0 0 0 0 0 0 0 0
343 220 58 28 1 0 0 4 1 1 1 8 21 34 12 27 9 0 0 0 0 0 0 0 0 0 0 0 0 0 0 0 0 0 0 0 0 0 0 0 0 0 0
281 141 67 16 0 0 0 0 0 0 1 4 1 30 66 66 17 2 0 0 0 0 0 0 0 0 0 0 0 0 0 0 0 0 0 0 0 0 0 0 0 0 0
200 52 34 6 0 0 0 0 0 8 0 1 1 11 39 65 53 27 0 0 0 0 0 0 0 0 0 0 0 0 0 0 0 0 0 0 0 0 0 0 0 0 0
47 40 18 3 0 0 0 0 0 0 0 0 1 6 45 46 59 49 9 0 0 0 0 0 0 0 0 0 0 0 0 0 0 0 0 0 0 0 0 0 0 0 0
0 10 9 1 0 0 0 0 0 0 0 0 0 4 11 46 28 36 33 0 0 0 1 1 0 1 0 0 0 0 0 0 0 0 0 0 0 0 0 0 0 0 0

GFSSE_con_mlcape_114.txt.gz
CAPE
554 887 888 1036 1095 968 826 904 1092 1314 1467 1314 1293 1290 1288 1327 1218 1153 1172 1225 1172 1153 1109 1079 1020 983 948 893 748 537 358 275 317 255 182 147 102 103 139 102 77 81 104
365 780 849 1093 1125 1020 823 911 1055 1377 1720 1630 1488 1381 1436 1389 1326 1325 1230 1290 1331 1238 1150 1166 1093 1075 1053 873 589 504 373 272 271 146 105 92 94 71 90 67 64 71 63
514 603 1024 1270 1219 1081 822 937 1147 1442 1843 1794 1677 1637 1578 1494 1417 1441 1380 1392 1307 1134 1022 1176 979 986 938 781 630 494 354 260 171 119 37 32 55 100 80 39 29 29 36
779 697 1063 1393 1284 1085 867 932 1279 1537 1670 1748 1725 1732 1654 1561 1505 1503 1470 1399 1255 1148 964 972 1114 914 798 658 556 394 229 83 32 12 8 20 58 78 36 35 20 28 35
1020 773 1000 1434 1269 1093 1072 937 1337 1595 1522 1661 1777 1770 1685 1568 1458 1383 1244 1276 1243 1195 1002 1057 1092 842 641 496 340 137 32 5 3 1 0 1 13 44 23 20 1 0 12
837 830 970 1394 1300 1203 1213 1239 1150 1347 1616 1730 1768 1532 1737 1649 1442 1400 1343 1268 1224 1001 911 1044 979 686 473 283 113 18 0 0 0 0 0 0 0 14 0 0 0 0 6
753 871 1014 1343 1425 1315 1317 1379 1484 1105 1390 1595 1482 649 1212 1156 1411 1290 1140 998 904 770 707 713 800 463 281 143 33 1 0 0 0 0 0 0 0 3 0 0 0 6 8
788 1057 1097 1297 1505 1413 1456 1469 1498 1329 1185 1187 985 823 487 432 454 480 622 803 851 743 616 711 507 318 174 70 3 0 0 0 0 0 0 0 0 2 1 3 6 2 7
1062 1076 1170 1240 1517 1531 1482 1504 1471 1430 1287 1099 936 406 404 303 133 8 53 454 565 582 566 458 359 142 105 2 0 0 0 0 0 0 0 0 6 9 10 7 6 6 9
1122 1047 1244 1213 1363 1536 1614 1469 1474 1452 1350 1067 789 598 629 98 27 135 82 186 376 418 377 271 165 50 28 0 0 0 0 0 0 0 0 0 11 4 5 7 4 6 6
1048 1069 1165 1287 1245 1321 1559 1496 1557 1500 1384 1085 757 271 130 0 11 63 83 237 265 287 272 152 92 21 23 4 0 0 0 0 0 0 0 0 1 8 9 4 2 2 3
563 763 1067 1137 1215 1220 1264 1287 1427 1555 1353 994 548 318 105 2 31 42 51 85 142 180 159 110 58 0 1 1 0 0 0 0 0 0 0 0 7 10 4 3 1 4 1
338 672 811 938 1018 1069 1065 1109 986 981 1155 806 291 102 39 5 64 43 65 77 172 134 83 44 0 0 0 0 0 0 0 0 0 0 0 0 6 9 9 3 1 3 3
315 575 767 764 716 605 486 560 653 669 601 810 390 74 3 6 18 25 55 210 161 88 31 3 0 0 0 0 0 0 0 0 0 0 0 2 3 3 11 3 1 9 5
302 312 502 596 512 253 71 34 15 28 150 304 307 132 26 10 6 39 64 83 93 53 40 7 0 0 0 0 0 0 0 0 0 0 0 4 7 6 8 8 9 8 5
197 290 342 453 405 117 24 26 0 0 1 1 67 65 26 17 19 12 45 50 15 6 12 0 0 0 0 0 0 0 0 0 0 0 0 1 3 4 5 7 8 5 6
7 217 270 243 205 105 48 39 0 0 1 3 2 28 28 19 11 6 38 41 8 0 0 0 0 0 0 0 0 0 0 0 0 0 0 0 0 0 4 7 9 6 4
0 48 214 257 205 152 104 28 0 1 0 0 2 11 90 50 13 32 51 3 0 0 0 0 0 0 0 0 0 0 0 0 0 0 0 0 0 0 1 4 8 2 2
0 27 197 288 295 288 81 3 0 0 0 0 0 0 7 58 32 37 43 2 0 0 0 0 0 0 0 0 0 0 0 0 0 0 0 0 0 0 0 0 0 0 1
0 68 190 287 346 235 26 1 2 0 0 1 3 2 2 5 42 30 3 1 0 0 0 0 0 0 0 0 0 0 0 0 0 0 0 0 0 0 0 0 0 0 0
22 143 220 338 315 61 17 8 1 1 0 2 0 1 1 4 2 1 1 1 0 0 0 0 0 0 0 0 0 0 0 0 0 0 0 0 0 0 0 0 0 0 0
53 218 268 398 225 35 24 8 1 1 3 2 1 2 2 13 2 1 1 0 0 0 0 0 0 0 0 0 0 0 0 0 0 0 0 0 0 0 0 0 0 0 0
66 227 276 268 147 17 18 1 0 2 4 1 5 2 8 2 1 0 0 0 0 0 0 0 0 0 0 0 0 0 0 0 0 0 0 0 0 0 0 0 0 0 0
34 143 141 136 50 3 1 0 0 15 1 2 1 4 1 14 1 0 0 0 0 0 0 0 0 0 0 0 0 0 0 0 0 0 0 0 0 0 0 0 0 0 0
7 83 96 24 1 0 0 0 5 9 0 1 6 1 4 4 7 1 0 0 0 0 0 0 0 0 0 0 0 0 0 0 0 0 0 0 0 0 0 0 0 0 0
0 42 84 18 1 0 0 0 0 0 8 3 2 2 5 23 28 10 3 0 0 0 0 0 0 0 0 0 0 0 0 0 0 0 0 0 0 0 0 0 0 0 0

GFSSE_con_mlcape_117.txt.gz
CAPE
586 784 853 914 998 961 913 883 996 1376 1405 1327 1329 1309 1335 1418 1423 1410 1390 1415 1266 1180 1166 1134 1052 1023 993 869 705 605 537 581 519 479 433 376 291 246 235 128 81 80 147
544 976 890 903 1007 931 863 945 1162 1594 1643 1576 1538 1487 1470 1433 1424 1454 1397 1381 1319 1248 1343 1283 1226 1182 1100 832 664 556 463 458 354 272 229 171 165 100 142 68 59 101 139
459 966 1008 885 1113 971 953 998 1162 1776 1810 1765 1726 1625 1550 1454 1489 1517 1397 1290 1296 1380 1408 1395 1333 1249 1019 775 649 532 463 336 258 252 145 80 120 110 97 54 64 83 92
522 845 1058 959 1145 1125 1115 978 1223 1637 1917 1907 1784 1667 1601 1559 1585 1577 1425 1367 1310 1293 1412 1432 1282 1236 955 724 628 514 375 226 65 21 38 52 103 97 61 49 60 79 52
654 677 1029 1082 1253 1265 1202 1198 1279 1715 1932 1873 1741 1714 1619 1552 1547 1449 1430 1388 1199 1255 1240 1309 1249 1141 933 728 563 409 186 42 14 32 46 64 83 93 68 55 38 16 34
873 973 985 1141 1304 1310 1230 1373 1400 1525 1716 1718 1649 1767 1744 1443 980 824 680 1088 1089 1103 1290 1261 1035 914 785 571 365 182 67 20 22 27 32 65 36 29 0 0 0 0 7
973 1029 1128 1179 1274 1389 1318 1418 1571 1414 1547 1668 1915 1569 1494 759 564 569 545 1042 1057 944 954 1010 769 687 611 394 217 99 14 5 24 10 14 17 7 3 0 0 0 0 0
932 1121 1329 1265 1438 1361 1510 1394 1588 1566 1503 1634 1742 1489 1177 755 741 320 704 786 740 770 764 785 752 664 460 220 94 12 0 0 0 2 9 18 4 3 0 0 0 0 4
1323 1110 1272 1516 1593 1480 1401 1552 1462 1545 1611 1564 1676 1044 817 853 426 198 411 156 472 643 557 621 719 586 328 114 11 0 0 0 0 3 5 15 2 5 0 0 2 6 8
1308 1383 1179 1333 1612 1780 1593 1593 1538 1454 1432 1579 1289 780 863 633 435 483 367 345 414 287 408 594 592 446 180 11 0 0 0 0 0 0 2 12 6 9 16 2 4 14 10
1141 1343 1350 1172 1394 1632 1702 1576 1554 1467 1252 1272 1148 815 504 443 395 200 108 122 168 210 446 424 379 237 50 0 0 0 0 0 0 0 2 1 12 11 12 2 6 4 10
909 1052 1294 1231 1265 1468 1597 1450 1617 1522 1563 1438 1329 767 603 401 281 161 127 176 235 330 266 222 170 95 13 0 0 0 0 0 0 0 2 2 7 16 13 11 6 11 4
583 1063 1150 1218 1324 1322 1411 1362 1480 1591 1488 1344 1234 1033 530 103 45 192 236 308 441 278 185 96 71 103 73 23 4 0 0 0 1 0 2 5 6 18 8 3 3 7 12
338 633 1015 1159 1262 1311 1304 1311 1242 1345 1372 1119 831 675 355 106 50 126 262 409 385 285 154 61 53 36 52 16 0 0 0 0 0 1 2 3 17 17 8 8 9 8 4
94 371 622 942 1148 1192 1153 1048 932 857 862 1003 622 220 235 143 95 43 80 185 219 193 139 36 18 0 0 0 0 0 0 0 0 0 10 8 7 3 7 5 8 5 5
0 20 399 700 1029 1055 1078 900 724 487 409 602 569 216 130 75 45 47 50 109 154 105 95 12 11 0 0 0 0 0 0 0 0 1 4 4 0 0 6 2 6 3 8
0 0 0 260 821 913 845 611 304 189 181 364 460 228 89 16 0 18 17 26 75 42 5 2 8 0 0 0 0 0 0 0 0 1 2 2 1 5 4 7 7 8 6
0 0 0 35 467 742 692 404 32 4 0 2 27 52 127 57 16 19 30 36 4 6 0 0 0 0 0 0 0 0 0 0 1 1 1 2 6 10 4 6 5 2 3
0 0 0 18 250 528 577 298 18 3 1 1 3 10 68 53 22 37 40 13 1 1 0 0 0 0 0 0 0 0 0 0 0 0 1 2 3 3 3 3 0 0 0
0 0 0 43 264 407 357 166 35 4 1 2 3 3 4 12 48 57 55 2 2 1 0 0 0 0 0 0 0 0 0 0 2 0 0 0 0 1 1 4 4 1 0
0 0 0 92 269 305 244 228 128 2 0 1 4 3 5 1 39 64 6 2 1 1 0 0 0 0 0 0 0 1 0 0 4 0 0 0 0 0 0 0 0 0 0
0 0 36 199 226 355 363 255 75 1 2 0 2 4 1 2 4 16 24 1 1 0 0 0 0 0 0 0 0 0 2 1 3 0 0 0 0 0 0 0 0 0 0
0 0 53 234 215 400 378 169 39 0 2 12 2 2 0 1 3 1 1 1 2 0 0 0 0 0 0 0 0 0 3 12 0 0 0 0 0 0 0 0 0 0 0
0 0 111 235 244 301 235 129 26 0 2 32 9 0 3 1 1 2 1 2 0 0 0 0 0 0 0 0 0 0 0 0 0 0 0 0 0 0 0 0 0 0 0
0 0 72 189 201 98 98 95 38 0 1 48 10 0 10 9 2 2 2 2 0 0 0 0 0 0 0 0 0 0 0 0 0 0 7 0 0 0 0 0 9 1 0
0 0 25 168 105 15 57 64 10 0 4 19 8 10 2 6 2 2 1 2 0 0 0 0 0 0 0 0 0 0 0 0 0 0 0 1 1 0 0 0 5 4 1

GFSSE_con_mlcape_120.txt.gz
CAPE
496 1055 802 817 686 916 898 918 995 1514 1437 1270 1144 1454 1408 1477 1492 1510 1452 1408 1374 1274 1315 1318 1148 1098 965 893 940 903 755 748 696 568 529 572 562 436 241 153 203 174 205
359 1107 759 809 794 997 961 936 1111 1433 1628 1501 1333 1537 1506 1545 1542 1588 1524 1491 1350 1282 1392 1284 1118 1116 1118 970 838 764 716 626 609 473 400 420 369 312 265 147 154 167 136
510 1118 995 901 883 1053 1091 1067 1241 1708 1807 1704 1629 1527 1463 1642 1645 1641 1594 1430 1332 1276 1449 1351 1280 1299 1040 971 762 698 629 506 361 218 225 173 206 321 245 116 151 182 157
823 1105 1303 846 963 1151 1228 1108 1402 1880 1979 1778 1799 1718 1662 1666 1592 1526 1538 1383 1222 1148 1299 1372 1394 1251 1116 887 741 661 511 359 253 143 114 164 182 264 253 214 162 190 143
896 1036 1385 867 933 1118 1251 1110 1406 2031 2079 1865 1967 1821 1679 1684 1655 1507 1256 1193 1142 1148 1336 1412 1333 1254 1001 844 714 539 330 208 83 115 45 55 112 193 221 158 80 51 53
928 955 1375 945 1057 1257 1349 1126 1323 1912 2130 2098 2031 1812 1749 1518 1427 780 608 574 824 1009 1057 1112 1051 1151 926 765 578 400 211 96 83 36 50 160 82 115 102 43 1 20 25
1137 1230 1690 1127 1196 1399 1456 1350 1282 1780 2039 2179 2000 1855 1767 1315 669 52 332 184 193 453 1091 1074 1094 905 797 631 448 289 162 100 112 44 49 149 80 3 0 0 0 0 0
1618 1808 1879 1226 1308 1419 1589 1565 1387 1517 1733 2014 2014 1836 1620 1097 498 236 436 134 223 485 1028 885 872 743 657 510 319 179 137 113 22 34 43 41 7 7 0 0 0 0 0
2080 2067 1994 1444 1562 1404 1637 1663 1614 1429 1555 1756 1875 1741 1316 784 612 491 378 722 551 735 764 726 684 634 555 384 197 112 41 43 28 23 30 20 16 10 0 0 0 0 0
2208 2207 2044 1894 1833 1923 1733 1655 1709 1585 1425 1573 1820 1668 1189 756 575 612 657 645 605 602 580 593 601 535 427 213 80 5 0 0 27 16 17 4 7 7 2 0 0 0 2
1900 2227 2238 2195 1972 2077 1962 1853 1664 1660 1526 1568 1780 1468 1065 1083 924 521 524 277 422 492 467 508 470 416 282 78 12 0 0 5 13 8 19 0 6 7 8 3 2 2 1
1624 1946 2317 2230 2019 2002 2003 1859 1944 1959 1871 1913 1957 1633 1030 925 1037 680 546 275 452 503 488 453 355 286 206 207 11 0 12 25 8 6 12 3 8 17 14 9 0 6 12
1147 1743 2011 2141 2078 2047 1918 1905 1815 1834 1904 1768 1774 1867 1384 1099 908 659 370 404 297 366 263 270 254 322 327 83 4 1 30 16 7 6 6 5 14 19 7 11 12 7 15
555 1283 1966 2048 1766 1912 1806 1821 1829 2139 1782 2084 1895 1765 1233 922 761 441 323 171 325 415 328 398 306 250 68 12 23 66 25 17 5 2 5 14 8 16 14 17 12 15 11
182 739 1288 1939 1789 1726 1721 1677 1695 1875 1993 2030 1827 1732 1126 824 670 484 377 267 338 385 339 224 154 97 86 113 59 104 25 20 5 1 3 16 13 7 13 15 7 2 6
0 60 707 1323 1791 1768 1493 1490 1530 1549 1793 1729 1587 1584 1426 835 531 209 181 457 241 358 254 130 121 115 134 136 96 89 21 8 2 1 8 16 11 0 23 11 13 4 4
0 0 3 346 1304 1784 1710 1392 1277 1287 1308 1581 1455 1386 1381 817 612 102 117 198 152 147 134 97 86 76 104 118 116 81 13 5 1 1 2 14 10 15 18 14 7 4 4
0 0 0 0 315 1321 1606 1817 1421 1094 925 1095 1335 985 1020 784 554 335 208 122 161 88 55 42 58 79 118 149 90 81 11 5 4 5 21 22 11 7 7 2 5 4 8
0 0 0 0 38 647 1290 1566 1650 1318 955 863 1220 1128 656 502 416 243 133 78 82 48 1 2 45 79 117 121 94 39 11 8 6 7 27 28 11 4 2 4 6 4 4
0 0 0 0 0 408 990 1484 1281 721 411 363 449 513 578 327 192 214 110 30 23 13 1 0 25 69 111 118 27 13 15 26 23 16 16 29 8 6 6 2 4 2 0
0 0 0 0 44 516 913 1182 773 420 184 110 104 99 36 155 141 98 71 30 2 2 1 0 4 58 64 53 35 19 16 42 21 6 11 27 10 5 3 5 2 0 0
1 5 35 168 351 562 717 696 580 433 341 129 14 16 3 34 73 46 68 47 2 2 2 0 15 42 40 49 12 12 20 23 10 8 15 28 13 7 3 1 0 0 0
0 74 100 203 462 439 590 519 730 490 315 34 16 3 2 82 142 92 48 41 2 2 2 0 2 13 26 23 10 2 8 4 11 10 8 22 24 13 9 2 1 1 0
8 166 170 326 400 259 571 509 821 612 624 296 119 88 97 145 43 5 2 10 4 2 1 0 0 1 22 10 12 16 4 2 9 15 11 18 15 12 11 4 0 0 7
0 134 280 362 217 193 442 857 922 885 583 317 107 140 133 9 1 6 5 1 2 1 1 0 3 30 18 0 0 18 29 23 0 2 3 13 14 8 6 9 0 3 21
0 2 34 152 148 167 369 796 902 871 470 319 296 204 79 2 2 2 1 2 1 2 2 1 0 1 5 13 0 7 6 1 6 2 2 0 3 21 28 29 38 69 77